Wetterdaten: Freitag, 06.10.2017
Datum Zeit Temp. Aussen Temp. o. S. +5cm Feuchte Auss BlattFeu 1 Luftdruck Regen Sonnenschein Regendauer Solar Windben Empfang
06.10.2017 00:00 9,6 C 8,9 C 7,8 C 88 % 0 lf 1015,9 hPa 0,0 l/m 0 min 0 min 1 W/m 12,6 km/h (3 Bft) 95,74 %
06.10.2017 00:02 9,6 C 8,9 C 7,8 C 88 % 0 lf 1015,9 hPa 0,0 l/m 0 min 0 min 0 W/m 14,6 km/h (3 Bft) 100,00 %
06.10.2017 00:04 9,6 C 8,9 C 7,8 C 88 % 0 lf 1015,9 hPa 0,0 l/m 0 min 0 min 0 W/m 12,6 km/h (3 Bft) 97,87 %
06.10.2017 00:07 9,5 C 8,9 C 7,8 C 88 % 0 lf 1015,9 hPa 0,0 l/m 0 min 0 min 5 W/m 12,6 km/h (3 Bft) 97,87 %
06.10.2017 00:08 9,5 C 8,9 C 7,8 C 88 % 0 lf 1015,9 hPa 0,0 l/m 0 min 0 min 2 W/m 14,6 km/h (3 Bft) 97,44 %
06.10.2017 00:10 9,5 C 8,9 C 7,8 C 88 % 0 lf 1015,9 hPa 0,0 l/m 0 min 0 min 0 W/m 16,7 km/h (3 Bft) 95,65 %
06.10.2017 00:12 9,5 C 8,9 C 7,8 C 88 % 0 lf 1015,8 hPa 0,0 l/m 0 min 0 min 0 W/m 18,8 km/h (3 Bft) 97,87 %
06.10.2017 00:14 9,4 C 8,9 C 7,8 C 89 % 0 lf 1015,9 hPa 0,0 l/m 0 min 0 min 0 W/m 14,6 km/h (3 Bft) 95,74 %
06.10.2017 00:16 9,4 C 8,9 C 7,8 C 89 % 0 lf 1015,9 hPa 0,0 l/m 0 min 0 min 0 W/m 12,6 km/h (3 Bft) 95,74 %
06.10.2017 00:18 9,4 C 8,9 C 7,2 C 89 % 0 lf 1015,9 hPa 0,0 l/m 0 min 0 min 0 W/m 14,6 km/h (3 Bft) 93,62 %
06.10.2017 00:20 9,4 C 8,9 C 7,2 C 89 % 0 lf 1015,8 hPa 0,0 l/m 0 min 0 min 0 W/m 16,7 km/h (3 Bft) 93,10 %
06.10.2017 00:22 9,4 C 8,9 C 7,2 C 89 % 0 lf 1015,9 hPa 0,0 l/m 0 min 0 min 4 W/m 16,7 km/h (3 Bft) 97,14 %
06.10.2017 00:24 9,4 C 8,3 C 7,2 C 89 % 0 lf 1015,8 hPa 0,0 l/m 0 min 0 min 2 W/m 10,5 km/h (2 Bft) 97,87 %
06.10.2017 00:26 9,3 C 8,3 C 7,2 C 89 % 0 lf 1015,9 hPa 0,0 l/m 0 min 0 min 5 W/m 16,7 km/h (3 Bft) 95,74 %
06.10.2017 00:28 9,3 C 8,3 C 7,2 C 89 % 0 lf 1015,9 hPa 0,0 l/m 0 min 0 min 5 W/m 14,6 km/h (3 Bft) 91,49 %
06.10.2017 00:30 9,3 C 8,3 C 7,2 C 89 % 0 lf 1015,9 hPa 0,0 l/m 0 min 0 min 5 W/m 12,6 km/h (3 Bft) 91,49 %
06.10.2017 00:32 9,3 C 8,3 C 7,2 C 89 % 0 lf 1015,9 hPa 0,0 l/m 0 min 0 min 4 W/m 16,7 km/h (3 Bft) 95,74 %
06.10.2017 00:34 9,3 C 8,3 C 7,2 C 89 % 0 lf 1015,9 hPa 0,0 l/m 0 min 0 min 0 W/m 16,7 km/h (3 Bft) 93,48 %
06.10.2017 00:36 9,2 C 8,3 C 7,2 C 89 % 0 lf 1015,9 hPa 0,0 l/m 0 min 0 min 0 W/m 12,6 km/h (3 Bft) 95,74 %
06.10.2017 00:38 9,2 C 8,3 C 7,2 C 90 % 0 lf 1015,9 hPa 0,0 l/m 0 min 0 min 2 W/m 12,6 km/h (3 Bft) 95,74 %
06.10.2017 00:40 9,2 C 8,3 C 7,2 C 90 % 0 lf 1015,9 hPa 0,0 l/m 0 min 0 min 0 W/m 14,6 km/h (3 Bft) 93,62 %
06.10.2017 00:42 9,2 C 8,3 C 7,2 C 90 % 0 lf 1015,9 hPa 0,0 l/m 0 min 0 min 0 W/m 16,7 km/h (3 Bft) 93,62 %
06.10.2017 00:44 9,2 C 8,3 C 7,2 C 90 % 0 lf 1015,9 hPa 0,0 l/m 0 min 0 min 0 W/m 12,6 km/h (3 Bft) 95,74 %
06.10.2017 00:46 9,2 C 8,3 C 7,2 C 90 % 0 lf 1015,9 hPa 0,0 l/m 0 min 0 min 0 W/m 14,6 km/h (3 Bft) 89,13 %
06.10.2017 00:48 9,1 C 8,3 C 7,2 C 90 % 0 lf 1015,9 hPa 0,0 l/m 0 min 0 min 0 W/m 16,7 km/h (3 Bft) 95,74 %
06.10.2017 00:50 9,1 C 8,3 C 7,8 C 90 % 0 lf 1015,9 hPa 0,0 l/m 0 min 0 min 0 W/m 18,8 km/h (3 Bft) 93,22 %
06.10.2017 00:52 9,1 C 8,9 C 7,8 C 90 % 0 lf 1015,9 hPa 0,0 l/m 0 min 0 min 0 W/m 18,8 km/h (3 Bft) 94,29 %
06.10.2017 00:54 9,1 C 8,9 C 7,8 C 90 % 0 lf 1015,8 hPa 0,0 l/m 0 min 0 min 0 W/m 18,8 km/h (3 Bft) 95,74 %
06.10.2017 00:56 9,1 C 8,9 C 7,8 C 90 % 0 lf 1015,9 hPa 0,0 l/m 0 min 0 min 0 W/m 18,8 km/h (3 Bft) 93,62 %
06.10.2017 00:58 9,1 C 8,9 C 7,8 C 90 % 0 lf 1015,9 hPa 0,0 l/m 0 min 0 min 0 W/m 18,8 km/h (3 Bft) 97,83 %
06.10.2017 01:00 9,1 C 8,9 C 7,8 C 90 % 0 lf 1015,9 hPa 0,0 l/m 0 min 0 min 0 W/m 18,8 km/h (3 Bft) 97,87 %
06.10.2017 01:02 9,1 C 8,9 C 7,8 C 91 % 0 lf 1015,9 hPa 0,0 l/m 0 min 0 min 0 W/m 16,7 km/h (3 Bft) 95,74 %
06.10.2017 01:04 9,2 C 8,9 C 7,8 C 91 % 0 lf 1015,8 hPa 0,0 l/m 0 min 0 min 0 W/m 14,6 km/h (3 Bft) 93,62 %
06.10.2017 01:06 9,1 C 8,9 C 7,8 C 91 % 0 lf 1015,8 hPa 0,0 l/m 0 min 0 min 0 W/m 14,6 km/h (3 Bft) 97,87 %
06.10.2017 01:08 9,1 C 8,9 C 7,8 C 91 % 0 lf 1015,8 hPa 0,0 l/m 0 min 0 min 0 W/m 18,8 km/h (3 Bft) 97,87 %
06.10.2017 01:10 9,2 C 8,9 C 7,8 C 91 % 0 lf 1015,8 hPa 0,0 l/m 0 min 0 min 0 W/m 12,6 km/h (3 Bft) 100,00 %
06.10.2017 01:12 9,2 C 8,9 C 7,8 C 91 % 0 lf 1015,8 hPa 0,0 l/m 0 min 0 min 0 W/m 16,7 km/h (3 Bft) 97,87 %
06.10.2017 01:14 9,2 C 8,9 C 7,8 C 91 % 0 lf 1015,8 hPa 0,0 l/m 0 min 0 min 0 W/m 20,9 km/h (4 Bft) 100,00 %
06.10.2017 01:16 9,2 C 8,9 C 7,8 C 91 % 0 lf 1015,8 hPa 0,0 l/m 0 min 0 min 0 W/m 18,8 km/h (3 Bft) 100,00 %
06.10.2017 01:18 9,2 C 8,9 C 7,8 C 91 % 0 lf 1015,8 hPa 0,0 l/m 0 min 0 min 0 W/m 12,6 km/h (3 Bft) 100,00 %
06.10.2017 01:20 9,2 C 8,9 C 7,8 C 91 % 0 lf 1015,8 hPa 0,0 l/m 0 min 0 min 0 W/m 18,8 km/h (3 Bft) 98,28 %
06.10.2017 01:22 9,2 C 8,9 C 7,8 C 91 % 0 lf 1015,9 hPa 0,0 l/m 0 min 0 min 0 W/m 18,8 km/h (3 Bft) 100,00 %
06.10.2017 01:24 9,2 C 8,9 C 7,8 C 91 % 0 lf 1015,8 hPa 0,0 l/m 0 min 0 min 0 W/m 12,6 km/h (3 Bft) 100,00 %
06.10.2017 01:26 9,2 C 8,9 C 7,8 C 91 % 0 lf 1015,8 hPa 0,0 l/m 0 min 0 min 0 W/m 16,7 km/h (3 Bft) 100,00 %
06.10.2017 01:28 9,2 C 8,9 C 7,8 C 91 % 0 lf 1015,8 hPa 0,0 l/m 0 min 0 min 0 W/m 10,5 km/h (2 Bft) 100,00 %
06.10.2017 01:30 9,2 C 8,9 C 7,8 C 91 % 0 lf 1015,8 hPa 0,0 l/m 0 min 0 min 0 W/m 14,6 km/h (3 Bft) 97,87 %
06.10.2017 01:32 9,2 C 8,9 C 7,8 C 91 % 0 lf 1015,8 hPa 0,0 l/m 0 min 0 min 0 W/m 16,7 km/h (3 Bft) 97,83 %
06.10.2017 01:34 9,2 C 8,9 C 7,8 C 91 % 0 lf 1015,9 hPa 0,0 l/m 0 min 0 min 0 W/m 12,6 km/h (3 Bft) 97,87 %
06.10.2017 01:36 9,2 C 8,9 C 7,8 C 91 % 0 lf 1015,8 hPa 0,0 l/m 0 min 0 min 0 W/m 14,6 km/h (3 Bft) 100,00 %
06.10.2017 01:38 9,2 C 8,3 C 7,2 C 91 % 0 lf 1015,8 hPa 0,0 l/m 0 min 0 min 0 W/m 14,6 km/h (3 Bft) 95,74 %
06.10.2017 01:40 9,2 C 8,3 C 7,2 C 91 % 0 lf 1015,8 hPa 0,0 l/m 0 min 0 min 0 W/m 12,6 km/h (3 Bft) 100,00 %
06.10.2017 01:42 9,2 C 8,3 C 7,2 C 91 % 0 lf 1015,8 hPa 0,0 l/m 0 min 0 min 0 W/m 18,8 km/h (3 Bft) 95,74 %
06.10.2017 01:44 9,2 C 8,3 C 7,2 C 91 % 0 lf 1015,8 hPa 0,0 l/m 0 min 0 min 0 W/m 16,7 km/h (3 Bft) 97,83 %
06.10.2017 01:46 9,2 C 8,3 C 7,2 C 91 % 0 lf 1015,8 hPa 0,0 l/m 0 min 0 min 0 W/m 16,7 km/h (3 Bft) 97,87 %
06.10.2017 01:48 9,1 C 8,3 C 7,2 C 91 % 0 lf 1015,9 hPa 0,0 l/m 0 min 0 min 0 W/m 12,6 km/h (3 Bft) 97,87 %
06.10.2017 01:50 9,1 C 8,3 C 7,2 C 91 % 0 lf 1015,8 hPa 0,0 l/m 0 min 0 min 0 W/m 12,6 km/h (3 Bft) 94,92 %
06.10.2017 01:52 9,1 C 8,3 C 7,2 C 91 % 0 lf 1015,8 hPa 0,0 l/m 0 min 0 min 0 W/m 14,6 km/h (3 Bft) 100,00 %
06.10.2017 01:54 9,1 C 8,3 C 7,2 C 91 % 0 lf 1015,8 hPa 0,0 l/m 0 min 0 min 0 W/m 12,6 km/h (3 Bft) 97,87 %
06.10.2017 01:56 9,1 C 8,3 C 7,2 C 91 % 0 lf 1015,8 hPa 0,0 l/m 0 min 0 min 0 W/m 14,6 km/h (3 Bft) 93,48 %
06.10.2017 01:58 9,1 C 8,3 C 7,2 C 91 % 0 lf 1015,8 hPa 0,0 l/m 0 min 0 min 0 W/m 14,6 km/h (3 Bft) 97,87 %
06.10.2017 02:00 9,0 C 8,3 C 7,2 C 91 % 0 lf 1015,8 hPa 0,0 l/m 0 min 0 min 0 W/m 20,9 km/h (4 Bft) 97,87 %
06.10.2017 02:02 9,0 C 8,3 C 7,2 C 91 % 0 lf 1015,8 hPa 0,0 l/m 0 min 0 min 0 W/m 14,6 km/h (3 Bft) 93,62 %
06.10.2017 02:04 9,0 C 8,3 C 7,2 C 91 % 0 lf 1015,8 hPa 0,0 l/m 0 min 0 min 0 W/m 18,8 km/h (3 Bft) 97,87 %
06.10.2017 02:06 8,9 C 8,3 C 7,2 C 91 % 0 lf 1015,9 hPa 0,0 l/m 0 min 0 min 0 W/m 16,7 km/h (3 Bft) 97,87 %
06.10.2017 02:08 8,9 C 8,3 C 7,2 C 91 % 0 lf 1015,9 hPa 0,0 l/m 0 min 0 min 0 W/m 18,8 km/h (3 Bft) 95,65 %
06.10.2017 02:10 8,9 C 8,3 C 7,2 C 91 % 0 lf 1015,9 hPa 0,0 l/m 0 min 0 min 0 W/m 20,9 km/h (4 Bft) 97,87 %
06.10.2017 02:12 8,9 C 8,3 C 7,2 C 91 % 0 lf 1015,9 hPa 0,0 l/m 0 min 0 min 0 W/m 18,8 km/h (3 Bft) 97,87 %
06.10.2017 02:14 8,9 C 8,3 C 7,2 C 91 % 0 lf 1015,9 hPa 0,0 l/m 0 min 0 min 4 W/m 18,8 km/h (3 Bft) 95,74 %
06.10.2017 02:16 8,9 C 8,3 C 7,2 C 91 % 0 lf 1015,9 hPa 0,0 l/m 0 min 0 min 5 W/m 23,0 km/h (4 Bft) 93,62 %
06.10.2017 02:18 8,9 C 8,3 C 7,2 C 91 % 0 lf 1015,9 hPa 0,0 l/m 0 min 0 min 0 W/m 23,0 km/h (4 Bft) 95,74 %
06.10.2017 02:20 8,9 C 8,3 C 7,2 C 91 % 0 lf 1015,9 hPa 0,0 l/m 0 min 0 min 0 W/m 16,7 km/h (3 Bft) 94,83 %
06.10.2017 02:22 8,8 C 8,3 C 7,2 C 91 % 0 lf 1015,9 hPa 0,0 l/m 0 min 0 min 0 W/m 14,6 km/h (3 Bft) 94,29 %
06.10.2017 02:24 8,8 C 8,3 C 7,2 C 91 % 0 lf 1015,9 hPa 0,0 l/m 0 min 0 min 0 W/m 16,7 km/h (3 Bft) 93,62 %
06.10.2017 02:26 8,8 C 8,3 C 7,2 C 91 % 0 lf 1015,9 hPa 0,0 l/m 0 min 0 min 0 W/m 14,6 km/h (3 Bft) 91,49 %
06.10.2017 02:28 8,8 C 8,3 C 7,2 C 91 % 0 lf 1015,9 hPa 0,0 l/m 0 min 0 min 0 W/m 18,8 km/h (3 Bft) 95,74 %
06.10.2017 02:30 8,8 C 8,3 C 7,2 C 91 % 0 lf 1015,8 hPa 0,0 l/m 0 min 0 min 0 W/m 16,7 km/h (3 Bft) 97,83 %
06.10.2017 02:32 8,8 C 8,3 C 7,2 C 91 % 0 lf 1015,8 hPa 0,0 l/m 0 min 0 min 0 W/m 23,0 km/h (4 Bft) 97,87 %
06.10.2017 02:34 8,8 C 8,3 C 7,2 C 91 % 0 lf 1015,8 hPa 0,0 l/m 0 min 0 min 0 W/m 18,8 km/h (3 Bft) 100,00 %
06.10.2017 02:36 8,8 C 8,3 C 7,2 C 91 % 0 lf 1015,8 hPa 0,0 l/m 0 min 0 min 0 W/m 16,7 km/h (3 Bft) 97,87 %
06.10.2017 02:38 8,8 C 8,3 C 7,2 C 92 % 0 lf 1015,9 hPa 0,0 l/m 0 min 0 min 0 W/m 16,7 km/h (3 Bft) 95,74 %
06.10.2017 02:40 8,7 C 8,3 C 7,2 C 92 % 0 lf 1015,8 hPa 0,0 l/m 0 min 0 min 5 W/m 16,7 km/h (3 Bft) 97,87 %
06.10.2017 02:42 8,7 C 8,3 C 7,2 C 92 % 0 lf 1015,8 hPa 0,0 l/m 0 min 0 min 5 W/m 20,9 km/h (4 Bft) 95,65 %
06.10.2017 02:44 8,7 C 8,3 C 6,7 C 92 % 0 lf 1015,8 hPa 0,0 l/m 0 min 0 min 0 W/m 16,7 km/h (3 Bft) 95,74 %
06.10.2017 02:46 8,7 C 8,3 C 7,2 C 92 % 0 lf 1015,8 hPa 0,0 l/m 0 min 0 min 5 W/m 16,7 km/h (3 Bft) 95,74 %
06.10.2017 02:48 8,7 C 8,3 C 6,7 C 92 % 0 lf 1015,8 hPa 0,0 l/m 0 min 0 min 0 W/m 14,6 km/h (3 Bft) 95,74 %
06.10.2017 02:50 8,7 C 7,8 C 6,7 C 92 % 0 lf 1015,8 hPa 0,0 l/m 0 min 0 min 0 W/m 16,7 km/h (3 Bft) 100,00 %
06.10.2017 02:52 8,7 C 7,8 C 6,7 C 92 % 0 lf 1015,8 hPa 0,0 l/m 0 min 0 min 5 W/m 23,0 km/h (4 Bft) 100,00 %
06.10.2017 02:54 8,7 C 7,8 C 6,7 C 92 % 0 lf 1015,9 hPa 0,0 l/m 0 min 0 min 0 W/m 18,8 km/h (3 Bft) 97,83 %
06.10.2017 02:56 8,7 C 7,8 C 6,7 C 92 % 0 lf 1015,8 hPa 0,0 l/m 0 min 0 min 2 W/m 20,9 km/h (4 Bft) 97,87 %
06.10.2017 02:58 8,7 C 8,3 C 7,2 C 92 % 0 lf 1015,8 hPa 0,0 l/m 0 min 0 min 0 W/m 18,8 km/h (3 Bft) 100,00 %
06.10.2017 03:00 8,7 C 8,3 C 7,2 C 92 % 0 lf 1015,8 hPa 0,0 l/m 0 min 0 min 0 W/m 14,6 km/h (3 Bft) 100,00 %
06.10.2017 03:02 8,6 C 8,3 C 7,2 C 92 % 0 lf 1015,8 hPa 0,0 l/m 0 min 0 min 0 W/m 14,6 km/h (3 Bft) 93,62 %
06.10.2017 03:04 8,6 C 7,8 C 6,7 C 92 % 0 lf 1015,8 hPa 0,0 l/m 0 min 0 min 0 W/m 14,6 km/h (3 Bft) 100,00 %
06.10.2017 03:06 8,6 C 7,8 C 6,7 C 92 % 0 lf 1015,8 hPa 0,0 l/m 0 min 0 min 0 W/m 14,6 km/h (3 Bft) 97,83 %
06.10.2017 03:08 8,6 C 7,8 C 6,7 C 92 % 0 lf 1015,8 hPa 0,0 l/m 0 min 0 min 0 W/m 12,6 km/h (3 Bft) 100,00 %
06.10.2017 03:10 8,6 C 7,8 C 6,7 C 92 % 0 lf 1015,8 hPa 0,0 l/m 0 min 0 min 0 W/m 18,8 km/h (3 Bft) 100,00 %
06.10.2017 03:12 8,6 C 7,8 C 6,7 C 92 % 0 lf 1015,7 hPa 0,0 l/m 0 min 0 min 5 W/m 16,7 km/h (3 Bft) 97,87 %
06.10.2017 03:14 8,6 C 7,8 C 6,7 C 92 % 0 lf 1015,8 hPa 0,0 l/m 0 min 0 min 5 W/m 14,6 km/h (3 Bft) 97,87 %
06.10.2017 03:16 8,6 C 7,8 C 6,7 C 92 % 0 lf 1015,8 hPa 0,0 l/m 0 min 0 min 0 W/m 16,7 km/h (3 Bft) 95,74 %
06.10.2017 03:18 8,6 C 7,8 C 6,7 C 92 % 0 lf 1015,7 hPa 0,0 l/m 0 min 0 min 0 W/m 12,6 km/h (3 Bft) 93,48 %
06.10.2017 03:20 8,6 C 7,8 C 6,7 C 92 % 0 lf 1015,7 hPa 0,0 l/m 0 min 0 min 0 W/m 12,6 km/h (3 Bft) 91,53 %
06.10.2017 03:22 8,5 C 7,8 C 6,7 C 92 % 0 lf 1015,6 hPa 0,0 l/m 0 min 0 min 0 W/m 12,6 km/h (3 Bft) 91,43 %
06.10.2017 03:24 8,5 C 7,8 C 6,7 C 92 % 0 lf 1015,6 hPa 0,0 l/m 0 min 0 min 0 W/m 14,6 km/h (3 Bft) 95,74 %
06.10.2017 03:26 8,5 C 7,8 C 6,7 C 92 % 0 lf 1015,7 hPa 0,0 l/m 0 min 0 min 0 W/m 18,8 km/h (3 Bft) 95,74 %
06.10.2017 03:28 8,5 C 7,8 C 6,7 C 92 % 0 lf 1015,6 hPa 0,0 l/m 0 min 0 min 0 W/m 14,6 km/h (3 Bft) 93,62 %
06.10.2017 03:30 8,5 C 7,8 C 6,7 C 92 % 0 lf 1015,6 hPa 0,0 l/m 0 min 0 min 4 W/m 10,5 km/h (2 Bft) 93,48 %
06.10.2017 03:32 8,5 C 7,8 C 6,7 C 92 % 0 lf 1015,6 hPa 0,0 l/m 0 min 0 min 5 W/m 14,6 km/h (3 Bft) 95,74 %
06.10.2017 03:34 8,5 C 7,8 C 6,7 C 92 % 0 lf 1015,5 hPa 0,0 l/m 0 min 0 min 5 W/m 12,6 km/h (3 Bft) 93,62 %
06.10.2017 03:36 8,4 C 7,8 C 6,7 C 92 % 0 lf 1015,6 hPa 0,0 l/m 0 min 0 min 5 W/m 10,5 km/h (2 Bft) 85,11 %
06.10.2017 03:38 8,4 C 7,8 C 6,7 C 92 % 0 lf 1015,6 hPa 0,0 l/m 0 min 0 min 5 W/m 10,5 km/h (2 Bft) 95,74 %
06.10.2017 03:40 8,4 C 7,8 C 6,7 C 92 % 0 lf 1015,6 hPa 0,0 l/m 0 min 0 min 5 W/m 12,6 km/h (3 Bft) 95,65 %
06.10.2017 03:42 8,4 C 7,8 C 6,7 C 92 % 0 lf 1015,5 hPa 0,0 l/m 0 min 0 min 5 W/m 18,8 km/h (3 Bft) 93,62 %
06.10.2017 03:44 8,4 C 7,8 C 6,7 C 92 % 0 lf 1015,5 hPa 0,0 l/m 0 min 0 min 5 W/m 16,7 km/h (3 Bft) 93,62 %
06.10.2017 03:46 8,4 C 7,8 C 6,7 C 92 % 0 lf 1015,6 hPa 0,0 l/m 0 min 0 min 5 W/m 10,5 km/h (2 Bft) 93,62 %
06.10.2017 03:48 8,4 C 7,8 C 6,7 C 92 % 0 lf 1015,5 hPa 0,0 l/m 0 min 0 min 5 W/m 12,6 km/h (3 Bft) 95,74 %
06.10.2017 03:50 8,4 C 7,8 C 6,7 C 92 % 0 lf 1015,6 hPa 0,0 l/m 0 min 0 min 5 W/m 10,5 km/h (2 Bft) 96,55 %
06.10.2017 03:52 8,3 C 7,8 C 6,7 C 92 % 0 lf 1015,6 hPa 0,0 l/m 0 min 0 min 5 W/m 16,7 km/h (3 Bft) 94,29 %
06.10.2017 03:54 8,3 C 7,8 C 6,7 C 92 % 0 lf 1015,5 hPa 0,0 l/m 0 min 0 min 5 W/m 18,8 km/h (3 Bft) 95,74 %
06.10.2017 03:56 8,3 C 7,8 C 6,7 C 92 % 0 lf 1015,6 hPa 0,0 l/m 0 min 0 min 5 W/m 10,5 km/h (2 Bft) 93,62 %
06.10.2017 03:58 8,3 C 7,8 C 6,7 C 92 % 0 lf 1015,5 hPa 0,0 l/m 0 min 0 min 5 W/m 10,5 km/h (2 Bft) 95,74 %
06.10.2017 04:00 8,3 C 7,8 C 6,7 C 92 % 0 lf 1015,6 hPa 0,0 l/m 0 min 0 min 5 W/m 10,5 km/h (2 Bft) 95,74 %
06.10.2017 04:05 8,3 C 7,8 C 6,7 C 92 % 0 lf 1015,6 hPa 0,0 l/m 0 min 0 min 5 W/m 12,6 km/h (3 Bft) 96,05 %
06.10.2017 04:06 8,3 C 7,8 C 7,2 C 92 % 0 lf 1015,6 hPa 0,0 l/m 0 min 0 min 5 W/m 10,5 km/h (2 Bft) 100,00 %
06.10.2017 04:08 8,3 C 8,3 C 7,2 C 93 % 0 lf 1015,6 hPa 0,0 l/m 0 min 0 min 5 W/m 12,6 km/h (3 Bft) 95,74 %
06.10.2017 04:10 8,3 C 8,3 C 7,2 C 93 % 0 lf 1015,7 hPa 0,0 l/m 0 min 0 min 5 W/m 20,9 km/h (4 Bft) 93,62 %
06.10.2017 04:12 8,3 C 8,3 C 7,2 C 93 % 0 lf 1015,7 hPa 0,0 l/m 0 min 0 min 5 W/m 16,7 km/h (3 Bft) 93,62 %
06.10.2017 04:14 8,4 C 8,3 C 7,2 C 93 % 0 lf 1015,6 hPa 0,0 l/m 0 min 0 min 5 W/m 18,8 km/h (3 Bft) 95,74 %
06.10.2017 04:16 8,4 C 8,3 C 7,2 C 93 % 0 lf 1015,6 hPa 0,0 l/m 0 min 0 min 5 W/m 14,6 km/h (3 Bft) 95,65 %
06.10.2017 04:18 8,4 C 8,3 C 7,2 C 93 % 0 lf 1015,6 hPa 0,0 l/m 0 min 0 min 5 W/m 20,9 km/h (4 Bft) 97,87 %
06.10.2017 04:20 8,4 C 8,3 C 7,2 C 93 % 0 lf 1015,6 hPa 0,0 l/m 0 min 0 min 5 W/m 18,8 km/h (3 Bft) 91,53 %
06.10.2017 04:22 8,4 C 8,3 C 7,8 C 93 % 0 lf 1015,6 hPa 0,0 l/m 0 min 0 min 5 W/m 18,8 km/h (3 Bft) 100,00 %
06.10.2017 04:24 8,5 C 8,3 C 7,8 C 93 % 0 lf 1015,6 hPa 0,0 l/m 0 min 0 min 5 W/m 10,5 km/h (2 Bft) 91,49 %
06.10.2017 04:26 8,5 C 8,3 C 7,8 C 93 % 0 lf 1015,6 hPa 0,0 l/m 0 min 0 min 5 W/m 14,6 km/h (3 Bft) 91,49 %
06.10.2017 04:28 8,5 C 8,3 C 7,8 C 93 % 0 lf 1015,6 hPa 0,0 l/m 0 min 0 min 5 W/m 10,5 km/h (2 Bft) 91,30 %
06.10.2017 04:30 8,5 C 8,3 C 7,2 C 93 % 0 lf 1015,6 hPa 0,0 l/m 0 min 0 min 5 W/m 10,5 km/h (2 Bft) 93,62 %
06.10.2017 04:32 8,6 C 8,3 C 7,2 C 93 % 0 lf 1015,6 hPa 0,0 l/m 0 min 0 min 5 W/m 16,7 km/h (3 Bft) 93,62 %
06.10.2017 04:34 8,6 C 8,3 C 7,2 C 93 % 0 lf 1015,6 hPa 0,0 l/m 0 min 0 min 5 W/m 10,5 km/h (2 Bft) 95,74 %
06.10.2017 04:36 8,6 C 8,3 C 7,2 C 93 % 0 lf 1015,6 hPa 0,0 l/m 0 min 0 min 5 W/m 14,6 km/h (3 Bft) 95,74 %
06.10.2017 04:38 8,5 C 8,3 C 7,2 C 93 % 0 lf 1015,6 hPa 0,0 l/m 0 min 0 min 5 W/m 25,1 km/h (4 Bft) 93,62 %
06.10.2017 04:40 8,6 C 8,3 C 7,2 C 93 % 0 lf 1015,5 hPa 0,0 l/m 0 min 0 min 5 W/m 12,6 km/h (3 Bft) 95,65 %
06.10.2017 04:42 8,6 C 8,3 C 7,2 C 93 % 0 lf 1015,5 hPa 0,0 l/m 0 min 0 min 5 W/m 14,6 km/h (3 Bft) 93,62 %
06.10.2017 04:44 8,6 C 8,3 C 7,2 C 93 % 0 lf 1015,6 hPa 0,0 l/m 0 min 0 min 5 W/m 8,4 km/h (2 Bft) 97,87 %
06.10.2017 04:46 8,6 C 8,3 C 7,2 C 93 % 0 lf 1015,6 hPa 0,0 l/m 0 min 0 min 5 W/m 18,8 km/h (3 Bft) 93,62 %
06.10.2017 04:48 8,5 C 8,3 C 7,2 C 93 % 0 lf 1015,6 hPa 0,0 l/m 0 min 0 min 5 W/m 16,7 km/h (3 Bft) 97,87 %
06.10.2017 04:50 8,5 C 7,8 C 6,7 C 93 % 0 lf 1015,6 hPa 0,0 l/m 0 min 0 min 5 W/m 12,6 km/h (3 Bft) 96,55 %
06.10.2017 04:52 8,5 C 7,8 C 6,7 C 93 % 0 lf 1015,6 hPa 0,0 l/m 0 min 0 min 5 W/m 14,6 km/h (3 Bft) 94,29 %
06.10.2017 04:54 8,5 C 7,8 C 6,7 C 93 % 0 lf 1015,6 hPa 0,0 l/m 0 min 0 min 5 W/m 12,6 km/h (3 Bft) 97,87 %
06.10.2017 04:56 8,5 C 7,8 C 6,7 C 93 % 0 lf 1015,6 hPa 0,0 l/m 0 min 0 min 5 W/m 12,6 km/h (3 Bft) 97,87 %
06.10.2017 04:58 8,4 C 7,8 C 6,7 C 93 % 0 lf 1015,6 hPa 0,0 l/m 0 min 0 min 5 W/m 10,5 km/h (2 Bft) 97,87 %
06.10.2017 05:00 8,4 C 7,8 C 6,7 C 93 % 0 lf 1015,6 hPa 0,0 l/m 0 min 0 min 5 W/m 12,6 km/h (3 Bft) 97,87 %
06.10.2017 05:02 8,4 C 7,8 C 6,7 C 93 % 0 lf 1015,6 hPa 0,0 l/m 0 min 0 min 5 W/m 23,0 km/h (4 Bft) 93,48 %
06.10.2017 05:04 8,4 C 7,8 C 6,7 C 93 % 0 lf 1015,6 hPa 0,0 l/m 0 min 0 min 5 W/m 18,8 km/h (3 Bft) 97,87 %
06.10.2017 05:06 8,4 C 7,8 C 6,7 C 93 % 0 lf 1015,5 hPa 0,0 l/m 0 min 0 min 5 W/m 18,8 km/h (3 Bft) 95,74 %
06.10.2017 05:08 8,4 C 8,3 C 7,2 C 93 % 0 lf 1015,5 hPa 0,0 l/m 0 min 0 min 5 W/m 12,6 km/h (3 Bft) 97,87 %
06.10.2017 05:10 8,4 C 8,3 C 7,2 C 93 % 0 lf 1015,5 hPa 0,0 l/m 0 min 0 min 5 W/m 10,5 km/h (2 Bft) 100,00 %
06.10.2017 05:12 8,4 C 8,3 C 7,2 C 93 % 0 lf 1015,5 hPa 0,0 l/m 0 min 0 min 5 W/m 10,5 km/h (2 Bft) 100,00 %
06.10.2017 05:14 8,4 C 8,3 C 7,2 C 93 % 0 lf 1015,5 hPa 0,0 l/m 0 min 0 min 5 W/m 14,6 km/h (3 Bft) 100,00 %
06.10.2017 05:16 8,4 C 8,3 C 7,2 C 93 % 0 lf 1015,6 hPa 0,0 l/m 0 min 0 min 5 W/m 18,8 km/h (3 Bft) 97,87 %
06.10.2017 05:18 8,4 C 8,3 C 7,2 C 93 % 0 lf 1015,6 hPa 0,0 l/m 0 min 0 min 5 W/m 16,7 km/h (3 Bft) 100,00 %
06.10.2017 05:20 8,4 C 8,3 C 7,2 C 93 % 0 lf 1015,6 hPa 0,0 l/m 0 min 0 min 5 W/m 14,6 km/h (3 Bft) 100,00 %
06.10.2017 05:22 8,4 C 8,3 C 7,8 C 93 % 0 lf 1015,5 hPa 0,0 l/m 0 min 0 min 5 W/m 10,5 km/h (2 Bft) 100,00 %
06.10.2017 05:24 8,5 C 8,3 C 7,8 C 93 % 0 lf 1015,5 hPa 0,0 l/m 0 min 0 min 5 W/m 16,7 km/h (3 Bft) 100,00 %
06.10.2017 05:26 8,5 C 8,3 C 7,8 C 93 % 0 lf 1015,6 hPa 0,0 l/m 0 min 0 min 5 W/m 12,6 km/h (3 Bft) 100,00 %
06.10.2017 05:28 8,5 C 8,3 C 7,8 C 93 % 0 lf 1015,6 hPa 0,0 l/m 0 min 0 min 5 W/m 16,7 km/h (3 Bft) 100,00 %
06.10.2017 05:30 8,6 C 8,3 C 7,8 C 93 % 0 lf 1015,6 hPa 0,0 l/m 0 min 0 min 5 W/m 14,6 km/h (3 Bft) 100,00 %
06.10.2017 05:32 8,6 C 8,3 C 7,8 C 93 % 0 lf 1015,6 hPa 0,0 l/m 0 min 0 min 5 W/m 16,7 km/h (3 Bft) 100,00 %
06.10.2017 05:34 8,6 C 8,3 C 7,8 C 93 % 0 lf 1015,6 hPa 0,0 l/m 0 min 0 min 5 W/m 12,6 km/h (3 Bft) 97,87 %
06.10.2017 05:35 8,6 C 8,3 C 7,8 C 93 % 0 lf 1015,6 hPa 0,0 l/m 0 min 0 min 5 W/m 16,7 km/h (3 Bft) 100,00 %
06.10.2017 05:42 8,6 C 8,3 C 7,8 C 93 % 0 lf 1015,7 hPa 0,0 l/m 0 min 0 min 5 W/m 6,3 km/h (2 Bft) 4,76 %
06.10.2017 05:44 8,6 C 8,3 C 7,8 C 93 % 0 lf 1015,7 hPa 0,0 l/m 0 min 0 min 5 W/m 6,3 km/h (2 Bft) 4,76 %
06.10.2017 05:46 8,6 C 8,3 C 7,8 C 93 % 0 lf 1015,7 hPa 0,0 l/m 0 min 0 min 5 W/m 6,3 km/h (2 Bft) 4,76 %
06.10.2017 05:48 8,6 C 8,9 C 7,8 C 93 % 0 lf 1015,7 hPa 0,0 l/m 0 min 0 min 5 W/m 16,7 km/h (3 Bft) 4,76 %
06.10.2017 05:50 8,7 C 8,9 C 7,8 C 93 % 0 lf 1015,8 hPa 0,0 l/m 0 min 0 min 5 W/m 14,6 km/h (3 Bft) 100,00 %
06.10.2017 05:52 8,7 C 8,9 C 7,8 C 93 % 0 lf 1015,8 hPa 0,0 l/m 0 min 0 min 5 W/m 23,0 km/h (4 Bft) 97,14 %
06.10.2017 05:54 8,7 C 8,9 C 7,8 C 93 % 0 lf 1015,8 hPa 0,0 l/m 0 min 0 min 5 W/m 25,1 km/h (4 Bft) 100,00 %
06.10.2017 05:56 8,7 C 8,9 C 7,8 C 93 % 0 lf 1015,8 hPa 0,0 l/m 0 min 0 min 5 W/m 12,6 km/h (3 Bft) 100,00 %
06.10.2017 05:58 8,8 C 8,9 C 7,8 C 93 % 0 lf 1015,9 hPa 0,0 l/m 0 min 0 min 5 W/m 16,7 km/h (3 Bft) 97,87 %
06.10.2017 06:00 8,8 C 8,9 C 7,8 C 93 % 2 lf 1015,9 hPa 0,0 l/m 0 min 0 min 5 W/m 14,6 km/h (3 Bft) 96,55 %
06.10.2017 06:02 8,8 C 8,9 C 7,8 C 93 % 2 lf 1016,0 hPa 0,0 l/m 0 min 0 min 5 W/m 18,8 km/h (3 Bft) 93,62 %
06.10.2017 06:04 8,8 C 8,9 C 7,8 C 93 % 3 lf 1016,0 hPa 0,0 l/m 0 min 2 min 5 W/m 16,7 km/h (3 Bft) 97,14 %
06.10.2017 06:06 8,8 C 8,9 C 7,8 C 93 % 2 lf 1015,9 hPa 0,0 l/m 0 min 0 min 5 W/m 20,9 km/h (4 Bft) 96,61 %
06.10.2017 06:10 8,9 C 8,9 C 7,8 C 93 % 15 lf 1015,9 hPa 0,0 l/m 0 min 4 min 5 W/m 18,8 km/h (3 Bft) 95,12 %
06.10.2017 06:12 8,9 C 8,9 C 7,8 C 93 % 15 lf 1015,8 hPa 0,0 l/m 0 min 2 min 5 W/m 12,6 km/h (3 Bft) 95,65 %
06.10.2017 06:14 8,9 C 8,9 C 7,8 C 93 % 15 lf 1015,8 hPa 0,0 l/m 0 min 2 min 5 W/m 16,7 km/h (3 Bft) 95,74 %
06.10.2017 06:16 8,9 C 8,9 C 7,8 C 93 % 15 lf 1015,8 hPa 0,0 l/m 0 min 0 min 5 W/m 25,1 km/h (4 Bft) 93,62 %
06.10.2017 06:18 9,0 C 8,9 C 7,8 C 93 % 15 lf 1015,8 hPa 0,0 l/m 0 min 2 min 5 W/m 12,6 km/h (3 Bft) 95,74 %
06.10.2017 06:20 9,0 C 8,9 C 7,8 C 93 % 15 lf 1015,7 hPa 0,0 l/m 0 min 0 min 5 W/m 14,6 km/h (3 Bft) 95,74 %
06.10.2017 06:22 9,1 C 8,9 C 7,8 C 93 % 15 lf 1015,7 hPa 0,0 l/m 0 min 0 min 5 W/m 8,4 km/h (2 Bft) 93,48 %
06.10.2017 06:24 9,1 C 8,9 C 7,8 C 93 % 15 lf 1015,7 hPa 0,0 l/m 0 min 0 min 5 W/m 14,6 km/h (3 Bft) 95,74 %
06.10.2017 06:26 9,1 C 8,9 C 7,8 C 93 % 15 lf 1015,6 hPa 0,0 l/m 0 min 0 min 5 W/m 18,8 km/h (3 Bft) 95,74 %
06.10.2017 06:28 9,1 C 8,9 C 7,8 C 93 % 15 lf 1015,6 hPa 0,0 l/m 0 min 0 min 5 W/m 16,7 km/h (3 Bft) 93,62 %
06.10.2017 06:30 9,1 C 8,9 C 7,8 C 93 % 15 lf 1015,6 hPa 0,0 l/m 0 min 0 min 5 W/m 18,8 km/h (3 Bft) 93,62 %
06.10.2017 06:32 9,1 C 8,9 C 7,8 C 93 % 15 lf 1015,6 hPa 0,0 l/m 0 min 0 min 5 W/m 16,7 km/h (3 Bft) 95,74 %
06.10.2017 06:34 9,2 C 8,9 C 7,8 C 93 % 15 lf 1015,5 hPa 0,0 l/m 0 min 0 min 0 W/m 16,7 km/h (3 Bft) 97,83 %
06.10.2017 06:36 9,2 C 8,9 C 7,8 C 93 % 14 lf 1015,5 hPa 0,0 l/m 0 min 0 min 0 W/m 16,7 km/h (3 Bft) 97,87 %
06.10.2017 06:38 9,2 C 8,9 C 7,8 C 93 % 14 lf 1015,6 hPa 0,0 l/m 0 min 0 min 0 W/m 18,8 km/h (3 Bft) 93,62 %
06.10.2017 06:40 9,2 C 8,9 C 7,8 C 93 % 13 lf 1015,6 hPa 0,0 l/m 0 min 0 min 5 W/m 14,6 km/h (3 Bft) 93,62 %
06.10.2017 06:42 9,2 C 8,9 C 7,8 C 93 % 12 lf 1015,6 hPa 0,0 l/m 0 min 0 min 5 W/m 18,8 km/h (3 Bft) 97,87 %
06.10.2017 06:44 9,2 C 8,9 C 7,8 C 93 % 11 lf 1015,6 hPa 0,0 l/m 0 min 0 min 0 W/m 12,6 km/h (3 Bft) 93,62 %
06.10.2017 06:46 9,2 C 8,9 C 7,8 C 93 % 10 lf 1015,7 hPa 0,0 l/m 0 min 0 min 0 W/m 14,6 km/h (3 Bft) 97,83 %
06.10.2017 06:48 9,2 C 8,9 C 7,8 C 93 % 7 lf 1015,7 hPa 0,0 l/m 0 min 0 min 0 W/m 14,6 km/h (3 Bft) 95,74 %
06.10.2017 06:50 9,2 C 8,9 C 7,8 C 93 % 4 lf 1015,7 hPa 0,0 l/m 0 min 0 min 0 W/m 18,8 km/h (3 Bft) 94,92 %
06.10.2017 06:52 9,2 C 9,4 C 7,8 C 93 % 3 lf 1015,6 hPa 0,0 l/m 0 min 0 min 0 W/m 16,7 km/h (3 Bft) 97,14 %
06.10.2017 06:54 9,3 C 8,9 C 7,8 C 93 % 3 lf 1015,7 hPa 0,0 l/m 0 min 0 min 0 W/m 16,7 km/h (3 Bft) 97,87 %
06.10.2017 06:56 9,3 C 8,9 C 7,8 C 93 % 13 lf 1015,6 hPa 0,0 l/m 0 min 2 min 0 W/m 18,8 km/h (3 Bft) 85,11 %
06.10.2017 06:58 9,3 C 8,9 C 7,8 C 93 % 13 lf 1015,6 hPa 0,2 l/m 0 min 2 min 0 W/m 20,9 km/h (4 Bft) 95,65 %
06.10.2017 07:00 9,3 C 8,9 C 7,8 C 93 % 12 lf 1015,7 hPa 0,0 l/m 0 min 0 min 0 W/m 18,8 km/h (3 Bft) 97,87 %
06.10.2017 07:02 9,3 C 8,9 C 7,8 C 93 % 10 lf 1015,6 hPa 0,0 l/m 0 min 0 min 0 W/m 25,1 km/h (4 Bft) 95,74 %
06.10.2017 07:04 9,3 C 8,9 C 7,8 C 93 % 8 lf 1015,6 hPa 0,0 l/m 0 min 0 min 0 W/m 23,0 km/h (4 Bft) 100,00 %
06.10.2017 07:06 9,3 C 8,9 C 7,8 C 93 % 4 lf 1015,6 hPa 0,0 l/m 0 min 0 min 0 W/m 20,9 km/h (4 Bft) 97,87 %
06.10.2017 07:08 9,3 C 8,9 C 7,8 C 93 % 3 lf 1015,6 hPa 0,0 l/m 0 min 0 min 0 W/m 20,9 km/h (4 Bft) 97,87 %
06.10.2017 07:10 9,3 C 8,9 C 7,8 C 93 % 3 lf 1015,6 hPa 0,0 l/m 0 min 0 min 0 W/m 16,7 km/h (3 Bft) 97,83 %
06.10.2017 07:12 9,3 C 8,9 C 7,8 C 93 % 2 lf 1015,6 hPa 0,0 l/m 0 min 0 min 0 W/m 16,7 km/h (3 Bft) 97,87 %
06.10.2017 07:14 9,3 C 8,9 C 7,8 C 93 % 1 lf 1015,6 hPa 0,0 l/m 0 min 0 min 0 W/m 16,7 km/h (3 Bft) 95,74 %
06.10.2017 07:16 9,3 C 8,9 C 7,8 C 93 % 0 lf 1015,6 hPa 0,0 l/m 0 min 0 min 0 W/m 18,8 km/h (3 Bft) 97,87 %
06.10.2017 07:18 9,3 C 8,9 C 7,8 C 93 % 0 lf 1015,6 hPa 0,0 l/m 0 min 0 min 0 W/m 16,7 km/h (3 Bft) 97,87 %
06.10.2017 07:20 9,3 C 8,9 C 7,8 C 93 % 0 lf 1015,6 hPa 0,0 l/m 0 min 0 min 0 W/m 16,7 km/h (3 Bft) 97,87 %
06.10.2017 07:22 9,3 C 8,9 C 7,8 C 93 % 0 lf 1015,7 hPa 0,0 l/m 0 min 0 min 0 W/m 14,6 km/h (3 Bft) 93,48 %
06.10.2017 07:24 9,3 C 8,9 C 7,8 C 93 % 0 lf 1015,7 hPa 0,0 l/m 0 min 0 min 0 W/m 14,6 km/h (3 Bft) 93,62 %
06.10.2017 07:26 9,3 C 8,9 C 7,2 C 93 % 0 lf 1015,7 hPa 0,0 l/m 0 min 0 min 0 W/m 16,7 km/h (3 Bft) 93,62 %
06.10.2017 07:28 9,2 C 8,9 C 7,2 C 93 % 0 lf 1015,7 hPa 0,0 l/m 0 min 0 min 0 W/m 16,7 km/h (3 Bft) 91,49 %
06.10.2017 07:30 9,2 C 8,3 C 7,2 C 93 % 0 lf 1015,7 hPa 0,0 l/m 0 min 0 min 155 W/m 18,8 km/h (3 Bft) 95,74 %
06.10.2017 07:32 9,2 C 8,3 C 7,2 C 93 % 0 lf 1015,7 hPa 0,0 l/m 0 min 0 min 82 W/m 14,6 km/h (3 Bft) 95,65 %
06.10.2017 07:34 9,2 C 8,3 C 7,2 C 93 % 0 lf 1015,7 hPa 0,0 l/m 0 min 0 min 7 W/m 20,9 km/h (4 Bft) 95,74 %
06.10.2017 07:36 9,2 C 8,3 C 7,2 C 93 % 0 lf 1015,7 hPa 0,0 l/m 0 min 0 min 7 W/m 23,0 km/h (4 Bft) 95,74 %
06.10.2017 07:38 9,2 C 8,3 C 7,2 C 93 % 0 lf 1015,7 hPa 0,0 l/m 0 min 0 min 8 W/m 12,6 km/h (3 Bft) 95,74 %
06.10.2017 07:40 9,1 C 8,3 C 7,2 C 93 % 0 lf 1015,7 hPa 0,0 l/m 0 min 0 min 9 W/m 12,6 km/h (3 Bft) 93,62 %
06.10.2017 07:42 9,1 C 8,3 C 7,2 C 93 % 0 lf 1015,7 hPa 0,0 l/m 0 min 0 min 10 W/m 12,6 km/h (3 Bft) 95,74 %
06.10.2017 07:44 9,1 C 8,3 C 7,2 C 93 % 0 lf 1015,7 hPa 0,0 l/m 0 min 0 min 11 W/m 14,6 km/h (3 Bft) 95,65 %
06.10.2017 07:46 9,1 C 8,3 C 7,2 C 93 % 0 lf 1015,7 hPa 0,0 l/m 0 min 0 min 12 W/m 10,5 km/h (2 Bft) 95,74 %
06.10.2017 07:48 9,0 C 8,3 C 7,2 C 93 % 0 lf 1015,7 hPa 0,0 l/m 0 min 0 min 13 W/m 20,9 km/h (4 Bft) 95,74 %
06.10.2017 07:50 9,0 C 8,3 C 7,2 C 93 % 0 lf 1015,7 hPa 0,0 l/m 0 min 0 min 5 W/m 14,6 km/h (3 Bft) 93,62 %
06.10.2017 07:52 9,0 C 8,3 C 7,2 C 93 % 0 lf 1015,7 hPa 0,0 l/m 0 min 0 min 11 W/m 18,8 km/h (3 Bft) 97,87 %
06.10.2017 07:54 8,9 C 8,3 C 7,2 C 93 % 0 lf 1015,7 hPa 0,0 l/m 0 min 0 min 16 W/m 16,7 km/h (3 Bft) 93,62 %
06.10.2017 07:56 8,9 C 8,3 C 7,2 C 93 % 0 lf 1015,8 hPa 0,0 l/m 2 min 0 min 22 W/m 23,0 km/h (4 Bft) 95,65 %
06.10.2017 07:58 8,9 C 8,3 C 7,2 C 93 % 0 lf 1015,8 hPa 0,0 l/m 2 min 0 min 28 W/m 12,6 km/h (3 Bft) 95,74 %
06.10.2017 08:00 8,9 C 8,3 C 7,2 C 93 % 0 lf 1015,8 hPa 0,0 l/m 2 min 0 min 33 W/m 18,8 km/h (3 Bft) 93,62 %
06.10.2017 08:02 8,9 C 8,3 C 7,2 C 93 % 0 lf 1015,8 hPa 0,0 l/m 2 min 0 min 39 W/m 20,9 km/h (4 Bft) 95,74 %
06.10.2017 08:04 8,9 C 8,3 C 7,2 C 93 % 0 lf 1015,8 hPa 0,0 l/m 2 min 0 min 45 W/m 18,8 km/h (3 Bft) 93,62 %
06.10.2017 08:06 8,9 C 8,3 C 7,2 C 93 % 0 lf 1015,8 hPa 0,0 l/m 2 min 0 min 50 W/m 20,9 km/h (4 Bft) 95,74 %
06.10.2017 08:08 8,9 C 8,3 C 7,2 C 94 % 0 lf 1015,8 hPa 0,0 l/m 2 min 0 min 56 W/m 16,7 km/h (3 Bft) 93,48 %
06.10.2017 08:10 8,9 C 8,3 C 7,2 C 94 % 0 lf 1015,8 hPa 0,0 l/m 2 min 0 min 62 W/m 20,9 km/h (4 Bft) 95,74 %
06.10.2017 08:12 8,9 C 8,3 C 7,2 C 94 % 0 lf 1015,9 hPa 0,0 l/m 2 min 0 min 67 W/m 16,7 km/h (3 Bft) 95,74 %
06.10.2017 08:14 8,9 C 8,3 C 7,2 C 94 % 0 lf 1015,9 hPa 0,0 l/m 2 min 0 min 73 W/m 16,7 km/h (3 Bft) 95,74 %
06.10.2017 08:16 8,9 C 8,3 C 7,2 C 94 % 0 lf 1015,9 hPa 0,0 l/m 0 min 0 min 24 W/m 16,7 km/h (3 Bft) 95,74 %
06.10.2017 08:18 8,9 C 8,3 C 7,2 C 94 % 0 lf 1015,9 hPa 0,0 l/m 0 min 0 min 25 W/m 16,7 km/h (3 Bft) 95,74 %
06.10.2017 08:20 8,8 C 8,3 C 7,2 C 94 % 0 lf 1015,9 hPa 0,0 l/m 0 min 0 min 26 W/m 18,8 km/h (3 Bft) 96,30 %
06.10.2017 08:22 8,8 C 8,3 C 7,2 C 94 % 0 lf 1016,0 hPa 0,0 l/m 0 min 0 min 30 W/m 14,6 km/h (3 Bft) 97,87 %
06.10.2017 08:24 8,8 C 8,3 C 7,2 C 94 % 0 lf 1016,0 hPa 0,0 l/m 0 min 0 min 34 W/m 14,6 km/h (3 Bft) 95,74 %
06.10.2017 08:26 8,8 C 8,9 C 7,2 C 94 % 0 lf 1016,0 hPa 0,0 l/m 0 min 0 min 49 W/m 10,5 km/h (2 Bft) 91,30 %
06.10.2017 08:28 8,8 C 9,4 C 7,2 C 94 % 0 lf 1016,0 hPa 0,0 l/m 2 min 0 min 55 W/m 12,6 km/h (3 Bft) 97,87 %
06.10.2017 08:30 8,8 C 9,4 C 7,2 C 94 % 0 lf 1016,0 hPa 0,0 l/m 2 min 0 min 62 W/m 14,6 km/h (3 Bft) 100,00 %
06.10.2017 08:32 8,8 C 9,4 C 7,2 C 94 % 0 lf 1016,1 hPa 0,0 l/m 2 min 0 min 69 W/m 14,6 km/h (3 Bft) 97,87 %
06.10.2017 08:34 8,8 C 9,4 C 7,2 C 94 % 0 lf 1016,1 hPa 0,0 l/m 2 min 0 min 78 W/m 16,7 km/h (3 Bft) 97,87 %
06.10.2017 08:36 8,8 C 9,4 C 7,8 C 94 % 0 lf 1016,1 hPa 0,0 l/m 2 min 0 min 94 W/m 14,6 km/h (3 Bft) 97,83 %
06.10.2017 08:38 8,9 C 9,4 C 7,8 C 94 % 0 lf 1016,1 hPa 0,0 l/m 2 min 0 min 109 W/m 16,7 km/h (3 Bft) 100,00 %
06.10.2017 08:40 8,9 C 9,4 C 7,8 C 95 % 0 lf 1016,2 hPa 0,0 l/m 2 min 0 min 113 W/m 12,6 km/h (3 Bft) 100,00 %
06.10.2017 08:42 8,9 C 10,0 C 8,3 C 95 % 0 lf 1016,2 hPa 0,0 l/m 2 min 0 min 111 W/m 14,6 km/h (3 Bft) 100,00 %
06.10.2017 08:44 8,9 C 10,0 C 8,3 C 95 % 0 lf 1016,2 hPa 0,0 l/m 2 min 0 min 99 W/m 16,7 km/h (3 Bft) 97,87 %
06.10.2017 08:46 9,0 C 10,0 C 8,3 C 95 % 0 lf 1016,2 hPa 0,0 l/m 0 min 0 min 65 W/m 18,8 km/h (3 Bft) 100,00 %
06.10.2017 08:48 9,0 C 10,0 C 8,3 C 95 % 0 lf 1016,3 hPa 0,0 l/m 0 min 0 min 63 W/m 14,6 km/h (3 Bft) 100,00 %
06.10.2017 08:50 9,1 C 10,0 C 8,3 C 95 % 0 lf 1016,3 hPa 0,0 l/m 0 min 0 min 61 W/m 14,6 km/h (3 Bft) 100,00 %
06.10.2017 08:52 9,1 C 10,0 C 8,3 C 95 % 0 lf 1016,3 hPa 0,0 l/m 0 min 0 min 53 W/m 12,6 km/h (3 Bft) 100,00 %
06.10.2017 08:54 9,1 C 9,4 C 8,3 C 95 % 0 lf 1016,3 hPa 0,0 l/m 0 min 0 min 47 W/m 20,9 km/h (4 Bft) 95,83 %
06.10.2017 08:56 9,1 C 9,4 C 8,9 C 95 % 0 lf 1016,4 hPa 0,0 l/m 0 min 0 min 61 W/m 16,7 km/h (3 Bft) 100,00 %
06.10.2017 08:58 9,2 C 9,4 C 8,9 C 95 % 0 lf 1016,3 hPa 0,0 l/m 0 min 0 min 66 W/m 25,1 km/h (4 Bft) 100,00 %
06.10.2017 09:00 9,2 C 10,0 C 8,9 C 95 % 0 lf 1016,3 hPa 0,0 l/m 0 min 0 min 69 W/m 14,6 km/h (3 Bft) 100,00 %
06.10.2017 09:02 9,2 C 10,0 C 8,9 C 95 % 0 lf 1016,3 hPa 0,0 l/m 0 min 0 min 78 W/m 16,7 km/h (3 Bft) 100,00 %
06.10.2017 09:04 9,2 C 10,0 C 8,9 C 95 % 0 lf 1016,4 hPa 0,0 l/m 2 min 0 min 100 W/m 14,6 km/h (3 Bft) 95,74 %
06.10.2017 09:06 9,3 C 10,6 C 8,9 C 95 % 0 lf 1016,3 hPa 0,0 l/m 2 min 0 min 144 W/m 25,1 km/h (4 Bft) 100,00 %
06.10.2017 09:08 9,3 C 11,1 C 8,9 C 95 % 0 lf 1016,4 hPa 0,0 l/m 2 min 0 min 114 W/m 20,9 km/h (4 Bft) 97,87 %
06.10.2017 09:10 9,4 C 11,7 C 8,9 C 95 % 0 lf 1016,4 hPa 0,0 l/m 2 min 0 min 143 W/m 23,0 km/h (4 Bft) 95,74 %
06.10.2017 09:12 9,4 C 12,2 C 8,9 C 95 % 0 lf 1016,4 hPa 0,0 l/m 2 min 0 min 163 W/m 27,2 km/h (4 Bft) 95,65 %
06.10.2017 09:14 9,4 C 12,8 C 8,9 C 95 % 0 lf 1016,3 hPa 0,0 l/m 2 min 0 min 195 W/m 25,1 km/h (4 Bft) 97,87 %
06.10.2017 09:16 9,5 C 12,2 C 9,4 C 95 % 0 lf 1016,4 hPa 0,0 l/m 2 min 0 min 124 W/m 18,8 km/h (3 Bft) 95,74 %
06.10.2017 09:18 9,6 C 11,7 C 9,4 C 95 % 0 lf 1016,4 hPa 0,0 l/m 0 min 0 min 107 W/m 23,0 km/h (4 Bft) 95,74 %
06.10.2017 09:20 9,6 C 11,1 C 9,4 C 95 % 0 lf 1016,4 hPa 0,0 l/m 0 min 0 min 105 W/m 25,1 km/h (4 Bft) 95,74 %
06.10.2017 09:22 9,6 C 11,1 C 9,4 C 95 % 0 lf 1016,4 hPa 0,0 l/m 0 min 0 min 112 W/m 25,1 km/h (4 Bft) 97,83 %
06.10.2017 09:24 9,7 C 11,1 C 9,4 C 95 % 0 lf 1016,4 hPa 0,0 l/m 0 min 0 min 119 W/m 27,2 km/h (4 Bft) 97,87 %
06.10.2017 09:26 9,7 C 11,1 C 9,4 C 95 % 0 lf 1016,5 hPa 0,0 l/m 0 min 0 min 123 W/m 20,9 km/h (4 Bft) 97,87 %
06.10.2017 09:28 9,7 C 11,1 C 9,4 C 95 % 0 lf 1016,5 hPa 0,0 l/m 0 min 0 min 93 W/m 20,9 km/h (4 Bft) 91,49 %
06.10.2017 09:30 9,8 C 10,6 C 9,4 C 95 % 3 lf 1016,6 hPa 0,0 l/m 0 min 0 min 61 W/m 18,8 km/h (3 Bft) 95,74 %
06.10.2017 09:32 9,8 C 10,6 C 9,4 C 95 % 1 lf 1016,6 hPa 0,0 l/m 0 min 2 min 61 W/m 20,9 km/h (4 Bft) 95,74 %
06.10.2017 09:34 9,8 C 10,6 C 9,4 C 95 % 0 lf 1016,7 hPa 0,0 l/m 0 min 0 min 73 W/m 25,1 km/h (4 Bft) 97,87 %
06.10.2017 09:36 9,9 C 10,6 C 9,4 C 95 % 0 lf 1016,6 hPa 0,0 l/m 0 min 0 min 96 W/m 16,7 km/h (3 Bft) 95,65 %
06.10.2017 09:38 9,9 C 10,6 C 9,4 C 94 % 0 lf 1016,6 hPa 0,0 l/m 0 min 0 min 97 W/m 20,9 km/h (4 Bft) 97,87 %
06.10.2017 09:40 9,9 C 10,6 C 10,0 C 94 % 0 lf 1016,8 hPa 0,0 l/m 0 min 0 min 105 W/m 18,8 km/h (3 Bft) 97,87 %
06.10.2017 09:42 9,9 C 11,1 C 10,0 C 95 % 0 lf 1016,8 hPa 0,0 l/m 0 min 0 min 119 W/m 18,8 km/h (3 Bft) 96,00 %
06.10.2017 09:44 10,0 C 11,1 C 10,0 C 95 % 0 lf 1016,8 hPa 0,0 l/m 0 min 0 min 109 W/m 25,1 km/h (4 Bft) 95,74 %
06.10.2017 09:46 10,0 C 11,1 C 10,0 C 95 % 0 lf 1016,8 hPa 0,0 l/m 0 min 0 min 113 W/m 18,8 km/h (3 Bft) 91,30 %
06.10.2017 09:48 10,1 C 11,1 C 10,0 C 94 % 0 lf 1016,8 hPa 0,0 l/m 0 min 0 min 135 W/m 16,7 km/h (3 Bft) 97,87 %
06.10.2017 09:50 10,1 C 11,7 C 10,6 C 94 % 0 lf 1016,8 hPa 0,0 l/m 2 min 0 min 167 W/m 18,8 km/h (3 Bft) 97,87 %
06.10.2017 09:52 10,1 C 11,7 C 10,6 C 94 % 0 lf 1016,8 hPa 0,0 l/m 2 min 0 min 157 W/m 12,6 km/h (3 Bft) 97,87 %
06.10.2017 09:54 10,2 C 12,8 C 10,6 C 94 % 0 lf 1016,9 hPa 0,0 l/m 2 min 0 min 182 W/m 18,8 km/h (3 Bft) 95,74 %
06.10.2017 09:56 10,2 C 12,2 C 10,6 C 94 % 0 lf 1016,9 hPa 0,0 l/m 0 min 0 min 134 W/m 23,0 km/h (4 Bft) 91,30 %
06.10.2017 09:58 10,2 C 13,3 C 10,0 C 94 % 0 lf 1016,9 hPa 0,0 l/m 0 min 0 min 155 W/m 20,9 km/h (4 Bft) 95,74 %
06.10.2017 10:00 10,3 C 15,6 C 10,6 C 94 % 0 lf 1016,9 hPa 0,0 l/m 2 min 0 min 259 W/m 16,7 km/h (3 Bft) 95,74 %
06.10.2017 10:02 10,3 C 15,6 C 11,1 C 94 % 0 lf 1017,0 hPa 0,0 l/m 2 min 0 min 243 W/m 18,8 km/h (3 Bft) 93,62 %
06.10.2017 10:04 10,4 C 17,2 C 11,7 C 94 % 0 lf 1016,9 hPa 0,0 l/m 2 min 0 min 270 W/m 16,7 km/h (3 Bft) 91,49 %
06.10.2017 10:06 10,5 C 17,2 C 12,2 C 94 % 0 lf 1016,9 hPa 0,0 l/m 2 min 0 min 383 W/m 16,7 km/h (3 Bft) 93,62 %
06.10.2017 10:08 10,6 C 16,1 C 11,7 C 94 % 0 lf 1016,9 hPa 0,0 l/m 2 min 0 min 199 W/m 18,8 km/h (3 Bft) 95,65 %
06.10.2017 10:10 10,7 C 16,1 C 11,1 C 94 % 0 lf 1016,9 hPa 0,0 l/m 0 min 0 min 154 W/m 25,1 km/h (4 Bft) 95,74 %
06.10.2017 10:12 10,7 C 16,7 C 11,7 C 94 % 0 lf 1016,9 hPa 0,0 l/m 2 min 0 min 290 W/m 23,0 km/h (4 Bft) 95,74 %
06.10.2017 10:14 10,8 C 17,2 C 11,7 C 93 % 0 lf 1017,0 hPa 0,0 l/m 2 min 0 min 304 W/m 23,0 km/h (4 Bft) 93,62 %
06.10.2017 10:16 10,9 C 18,3 C 12,2 C 93 % 0 lf 1017,1 hPa 0,0 l/m 2 min 0 min 397 W/m 25,1 km/h (4 Bft) 93,62 %
06.10.2017 10:18 10,9 C 18,3 C 12,2 C 93 % 0 lf 1017,1 hPa 0,0 l/m 2 min 0 min 469 W/m 23,0 km/h (4 Bft) 95,74 %
06.10.2017 10:20 11,1 C 17,2 C 12,2 C 93 % 0 lf 1017,1 hPa 0,0 l/m 2 min 0 min 308 W/m 20,9 km/h (4 Bft) 95,65 %
06.10.2017 10:22 11,1 C 16,1 C 12,2 C 93 % 0 lf 1017,0 hPa 0,0 l/m 2 min 0 min 236 W/m 25,1 km/h (4 Bft) 95,74 %
06.10.2017 10:24 11,2 C 15,6 C 12,2 C 92 % 0 lf 1017,2 hPa 0,0 l/m 2 min 0 min 233 W/m 20,9 km/h (4 Bft) 95,74 %
06.10.2017 10:26 11,2 C 14,4 C 12,2 C 92 % 0 lf 1017,2 hPa 0,0 l/m 2 min 0 min 190 W/m 23,0 km/h (4 Bft) 95,74 %
06.10.2017 10:28 11,3 C 13,9 C 12,2 C 92 % 0 lf 1017,2 hPa 0,0 l/m 0 min 0 min 184 W/m 18,8 km/h (3 Bft) 93,62 %
06.10.2017 10:30 11,3 C 13,9 C 12,2 C 91 % 0 lf 1017,3 hPa 0,0 l/m 0 min 0 min 177 W/m 20,9 km/h (4 Bft) 95,74 %
06.10.2017 10:32 11,4 C 13,3 C 12,2 C 91 % 0 lf 1017,3 hPa 0,0 l/m 0 min 0 min 191 W/m 29,3 km/h (5 Bft) 95,65 %
06.10.2017 10:34 11,4 C 12,8 C 12,2 C 90 % 0 lf 1017,3 hPa 0,0 l/m 0 min 0 min 191 W/m 23,0 km/h (4 Bft) 97,87 %
06.10.2017 10:36 11,4 C 12,8 C 11,7 C 90 % 0 lf 1017,4 hPa 0,0 l/m 0 min 0 min 150 W/m 25,1 km/h (4 Bft) 97,87 %
06.10.2017 10:38 11,4 C 12,8 C 11,7 C 90 % 0 lf 1017,4 hPa 0,0 l/m 0 min 0 min 117 W/m 23,0 km/h (4 Bft) 95,74 %
06.10.2017 10:40 11,4 C 12,2 C 11,7 C 89 % 0 lf 1017,4 hPa 0,0 l/m 0 min 0 min 92 W/m 16,7 km/h (3 Bft) 97,87 %
06.10.2017 10:42 11,4 C 12,2 C 11,1 C 89 % 0 lf 1017,4 hPa 0,0 l/m 0 min 0 min 85 W/m 18,8 km/h (3 Bft) 97,87 %
06.10.2017 10:44 11,4 C 12,2 C 11,1 C 89 % 0 lf 1017,4 hPa 0,0 l/m 0 min 0 min 72 W/m 20,9 km/h (4 Bft) 100,00 %
06.10.2017 10:46 11,4 C 11,7 C 11,1 C 88 % 0 lf 1017,5 hPa 0,0 l/m 0 min 0 min 53 W/m 23,0 km/h (4 Bft) 100,00 %
06.10.2017 10:48 11,4 C 11,7 C 10,6 C 88 % 3 lf 1017,5 hPa 0,0 l/m 0 min 0 min 73 W/m 25,1 km/h (4 Bft) 100,00 %
06.10.2017 10:50 11,4 C 11,7 C 10,6 C 88 % 15 lf 1017,5 hPa 0,0 l/m 0 min 2 min 92 W/m 20,9 km/h (4 Bft) 100,00 %
06.10.2017 10:52 11,4 C 11,1 C 10,0 C 88 % 15 lf 1017,5 hPa 0,0 l/m 0 min 2 min 70 W/m 29,3 km/h (5 Bft) 100,00 %
06.10.2017 10:54 11,4 C 11,1 C 9,4 C 88 % 15 lf 1017,6 hPa 0,0 l/m 0 min 2 min 58 W/m 29,3 km/h (5 Bft) 95,74 %
06.10.2017 10:56 11,3 C 11,1 C 9,4 C 88 % 15 lf 1017,6 hPa 0,0 l/m 0 min 2 min 106 W/m 20,9 km/h (4 Bft) 100,00 %
06.10.2017 10:58 11,3 C 11,1 C 9,4 C 88 % 15 lf 1017,6 hPa 0,0 l/m 0 min 2 min 117 W/m 14,6 km/h (3 Bft) 95,74 %
06.10.2017 11:00 11,3 C 11,1 C 9,4 C 88 % 15 lf 1017,6 hPa 0,0 l/m 0 min 2 min 107 W/m 20,9 km/h (4 Bft) 95,74 %
06.10.2017 11:02 11,3 C 10,6 C 9,4 C 88 % 15 lf 1017,6 hPa 0,0 l/m 0 min 2 min 91 W/m 18,8 km/h (3 Bft) 97,87 %
06.10.2017 11:04 11,3 C 10,6 C 9,4 C 89 % 15 lf 1017,7 hPa 0,0 l/m 0 min 2 min 82 W/m 14,6 km/h (3 Bft) 97,87 %
06.10.2017 11:06 11,3 C 10,6 C 9,4 C 89 % 15 lf 1017,8 hPa 0,0 l/m 0 min 2 min 78 W/m 16,7 km/h (3 Bft) 97,87 %
06.10.2017 11:08 11,3 C 10,6 C 9,4 C 89 % 15 lf 1017,8 hPa 0,2 l/m 0 min 2 min 79 W/m 18,8 km/h (3 Bft) 97,83 %
06.10.2017 11:10 11,3 C 10,6 C 9,4 C 89 % 15 lf 1017,8 hPa 0,0 l/m 0 min 2 min 86 W/m 12,6 km/h (3 Bft) 95,74 %
06.10.2017 11:12 11,3 C 10,6 C 9,4 C 89 % 15 lf 1017,8 hPa 0,0 l/m 0 min 2 min 90 W/m 18,8 km/h (3 Bft) 97,87 %
06.10.2017 11:14 11,3 C 10,0 C 9,4 C 89 % 15 lf 1017,9 hPa 0,0 l/m 0 min 2 min 99 W/m 23,0 km/h (4 Bft) 97,87 %
06.10.2017 11:16 11,2 C 10,6 C 9,4 C 90 % 15 lf 1017,9 hPa 0,0 l/m 0 min 0 min 126 W/m 14,6 km/h (3 Bft) 97,87 %
06.10.2017 11:18 11,2 C 10,6 C 10,0 C 90 % 15 lf 1017,8 hPa 0,0 l/m 0 min 0 min 132 W/m 14,6 km/h (3 Bft) 97,87 %
06.10.2017 11:20 11,2 C 11,1 C 10,0 C 90 % 15 lf 1017,9 hPa 0,0 l/m 0 min 0 min 136 W/m 10,5 km/h (2 Bft) 97,83 %
06.10.2017 11:22 11,2 C 10,6 C 10,0 C 90 % 15 lf 1017,9 hPa 0,0 l/m 0 min 2 min 144 W/m 18,8 km/h (3 Bft) 97,87 %
06.10.2017 11:24 11,2 C 10,6 C 10,0 C 91 % 15 lf 1017,9 hPa 0,0 l/m 0 min 2 min 98 W/m 12,6 km/h (3 Bft) 95,74 %
06.10.2017 11:26 11,2 C 10,6 C 10,0 C 91 % 15 lf 1017,9 hPa 0,2 l/m 0 min 2 min 101 W/m 12,6 km/h (3 Bft) 97,87 %
06.10.2017 11:28 11,2 C 11,1 C 10,0 C 91 % 15 lf 1018,0 hPa 0,0 l/m 0 min 2 min 154 W/m 10,5 km/h (2 Bft) 97,87 %
06.10.2017 11:30 11,2 C 11,1 C 10,6 C 91 % 15 lf 1018,0 hPa 0,0 l/m 0 min 2 min 192 W/m 23,0 km/h (4 Bft) 97,83 %
06.10.2017 11:32 11,2 C 11,1 C 10,0 C 91 % 15 lf 1018,1 hPa 0,0 l/m 0 min 2 min 222 W/m 25,1 km/h (4 Bft) 95,74 %
06.10.2017 11:34 11,2 C 11,1 C 10,0 C 91 % 15 lf 1018,2 hPa 0,0 l/m 0 min 2 min 211 W/m 23,0 km/h (4 Bft) 95,74 %
06.10.2017 11:36 11,2 C 11,1 C 10,0 C 91 % 15 lf 1018,2 hPa 0,0 l/m 0 min 2 min 163 W/m 25,1 km/h (4 Bft) 95,74 %
06.10.2017 11:38 11,2 C 10,6 C 9,4 C 91 % 15 lf 1018,2 hPa 0,2 l/m 0 min 2 min 95 W/m 29,3 km/h (5 Bft) 97,87 %
06.10.2017 11:40 11,1 C 10,6 C 9,4 C 91 % 15 lf 1018,2 hPa 0,0 l/m 0 min 2 min 59 W/m 20,9 km/h (4 Bft) 100,00 %
06.10.2017 11:42 11,1 C 10,0 C 9,4 C 91 % 15 lf 1018,2 hPa 0,2 l/m 0 min 2 min 54 W/m 18,8 km/h (3 Bft) 97,83 %
06.10.2017 11:44 11,1 C 10,0 C 9,4 C 91 % 15 lf 1018,2 hPa 0,2 l/m 0 min 2 min 62 W/m 14,6 km/h (3 Bft) 97,87 %
06.10.2017 11:46 11,1 C 10,0 C 9,4 C 92 % 15 lf 1018,3 hPa 0,2 l/m 0 min 2 min 94 W/m 18,8 km/h (3 Bft) 97,87 %
06.10.2017 11:48 11,1 C 10,0 C 9,4 C 92 % 15 lf 1018,3 hPa 0,0 l/m 0 min 2 min 128 W/m 16,7 km/h (3 Bft) 97,87 %
06.10.2017 11:50 11,0 C 10,6 C 10,0 C 92 % 15 lf 1018,2 hPa 0,0 l/m 0 min 2 min 151 W/m 10,5 km/h (2 Bft) 97,87 %
06.10.2017 11:52 11,0 C 10,0 C 10,0 C 92 % 15 lf 1018,1 hPa 0,0 l/m 0 min 2 min 164 W/m 16,7 km/h (3 Bft) 93,62 %
06.10.2017 11:54 11,0 C 10,6 C 10,0 C 92 % 15 lf 1018,2 hPa 0,0 l/m 0 min 2 min 169 W/m 14,6 km/h (3 Bft) 93,48 %
06.10.2017 11:56 10,9 C 10,6 C 10,0 C 92 % 15 lf 1018,3 hPa 0,0 l/m 0 min 2 min 190 W/m 10,5 km/h (2 Bft) 93,62 %
06.10.2017 11:58 11,0 C 11,1 C 10,0 C 92 % 15 lf 1018,1 hPa 0,0 l/m 0 min 0 min 216 W/m 14,6 km/h (3 Bft) 95,74 %
06.10.2017 12:00 11,0 C 12,2 C 10,6 C 92 % 15 lf 1018,2 hPa 0,0 l/m 2 min 0 min 260 W/m 12,6 km/h (3 Bft) 93,62 %
06.10.2017 12:02 11,1 C 12,8 C 11,1 C 93 % 15 lf 1018,2 hPa 0,0 l/m 2 min 0 min 319 W/m 23,0 km/h (4 Bft) 97,87 %
06.10.2017 12:04 11,1 C 13,9 C 11,7 C 93 % 15 lf 1018,3 hPa 0,0 l/m 2 min 0 min 290 W/m 14,6 km/h (3 Bft) 93,62 %
06.10.2017 12:06 11,2 C 16,1 C 12,8 C 93 % 15 lf 1018,4 hPa 0,0 l/m 2 min 0 min 437 W/m 14,6 km/h (3 Bft) 95,65 %
06.10.2017 12:10 11,4 C 16,1 C 12,8 C 94 % 15 lf 1018,3 hPa 0,0 l/m 4 min 0 min 397 W/m 23,0 km/h (4 Bft) 94,05 %
06.10.2017 12:12 11,6 C 16,1 C 12,2 C 94 % 15 lf 1018,3 hPa 0,0 l/m 2 min 0 min 335 W/m 23,0 km/h (4 Bft) 94,92 %
06.10.2017 12:14 11,7 C 16,1 C 12,2 C 94 % 15 lf 1018,3 hPa 0,0 l/m 2 min 0 min 347 W/m 16,7 km/h (3 Bft) 94,29 %
06.10.2017 12:16 11,7 C 15,6 C 12,2 C 94 % 15 lf 1018,3 hPa 0,0 l/m 2 min 0 min 280 W/m 20,9 km/h (4 Bft) 97,87 %
06.10.2017 12:18 11,8 C 16,1 C 12,2 C 94 % 15 lf 1018,3 hPa 0,0 l/m 2 min 0 min 337 W/m 18,8 km/h (3 Bft) 93,62 %
06.10.2017 12:20 11,8 C 17,2 C 12,8 C 94 % 15 lf 1018,4 hPa 0,0 l/m 2 min 0 min 488 W/m 18,8 km/h (3 Bft) 89,66 %
06.10.2017 12:22 11,9 C 17,8 C 13,3 C 94 % 15 lf 1018,3 hPa 0,0 l/m 2 min 0 min 485 W/m 16,7 km/h (3 Bft) 95,74 %
06.10.2017 12:24 11,9 C 18,3 C 13,9 C 94 % 15 lf 1018,5 hPa 0,0 l/m 2 min 0 min 557 W/m 23,0 km/h (4 Bft) 94,29 %
06.10.2017 12:26 12,1 C 17,2 C 13,3 C 94 % 15 lf 1018,4 hPa 0,0 l/m 2 min 0 min 566 W/m 25,1 km/h (4 Bft) 94,92 %
06.10.2017 12:28 12,1 C 17,8 C 13,9 C 94 % 15 lf 1018,4 hPa 0,0 l/m 2 min 0 min 705 W/m 18,8 km/h (3 Bft) 91,43 %
06.10.2017 12:30 12,3 C 18,3 C 14,4 C 94 % 15 lf 1018,5 hPa 0,0 l/m 2 min 0 min 550 W/m 20,9 km/h (4 Bft) 98,28 %
06.10.2017 12:32 12,4 C 16,7 C 13,9 C 94 % 15 lf 1018,5 hPa 0,0 l/m 2 min 0 min 349 W/m 23,0 km/h (4 Bft) 91,49 %
06.10.2017 12:34 12,4 C 14,4 C 12,8 C 94 % 15 lf 1018,5 hPa 0,0 l/m 2 min 0 min 451 W/m 23,0 km/h (4 Bft) 94,29 %
06.10.2017 12:36 12,4 C 13,9 C 12,2 C 94 % 15 lf 1018,4 hPa 0,0 l/m 2 min 0 min 612 W/m 27,2 km/h (4 Bft) 95,74 %
06.10.2017 12:38 12,4 C 12,8 C 11,7 C 93 % 15 lf 1018,5 hPa 0,0 l/m 0 min 0 min 125 W/m 23,0 km/h (4 Bft) 93,62 %
06.10.2017 12:40 12,4 C 13,3 C 11,7 C 92 % 14 lf 1018,5 hPa 0,0 l/m 0 min 0 min 184 W/m 25,1 km/h (4 Bft) 97,87 %
06.10.2017 12:42 12,4 C 13,9 C 12,2 C 92 % 13 lf 1018,4 hPa 0,0 l/m 0 min 0 min 197 W/m 18,8 km/h (3 Bft) 97,87 %
06.10.2017 12:44 12,4 C 13,3 C 11,7 C 92 % 13 lf 1018,5 hPa 0,0 l/m 0 min 0 min 113 W/m 16,7 km/h (3 Bft) 100,00 %
06.10.2017 12:46 12,4 C 12,8 C 11,7 C 91 % 12 lf 1018,5 hPa 0,0 l/m 0 min 0 min 139 W/m 23,0 km/h (4 Bft) 100,00 %
06.10.2017 12:48 12,4 C 13,3 C 11,7 C 91 % 11 lf 1018,5 hPa 0,0 l/m 0 min 0 min 181 W/m 16,7 km/h (3 Bft) 97,87 %
06.10.2017 12:50 12,4 C 13,9 C 11,7 C 91 % 9 lf 1018,5 hPa 0,0 l/m 0 min 0 min 253 W/m 20,9 km/h (4 Bft) 96,61 %
06.10.2017 12:52 12,4 C 15,6 C 11,7 C 91 % 8 lf 1018,5 hPa 0,0 l/m 2 min 0 min 279 W/m 18,8 km/h (3 Bft) 88,57 %
06.10.2017 12:54 12,5 C 16,1 C 12,2 C 91 % 4 lf 1018,5 hPa 0,0 l/m 2 min 0 min 384 W/m 23,0 km/h (4 Bft) 97,87 %
06.10.2017 12:56 12,6 C 17,2 C 12,8 C 91 % 3 lf 1018,5 hPa 0,0 l/m 2 min 0 min 383 W/m 23,0 km/h (4 Bft) 97,83 %
06.10.2017 12:58 12,7 C 17,2 C 12,8 C 91 % 2 lf 1018,5 hPa 0,0 l/m 2 min 0 min 336 W/m 18,8 km/h (3 Bft) 96,61 %
06.10.2017 13:00 12,7 C 16,1 C 12,8 C 91 % 1 lf 1018,6 hPa 0,0 l/m 0 min 0 min 204 W/m 18,8 km/h (3 Bft) 97,14 %
06.10.2017 13:02 12,8 C 15,0 C 12,2 C 90 % 1 lf 1018,5 hPa 0,0 l/m 0 min 0 min 164 W/m 29,3 km/h (5 Bft) 97,87 %
06.10.2017 13:04 12,8 C 14,4 C 12,2 C 89 % 0 lf 1018,4 hPa 0,0 l/m 0 min 0 min 200 W/m 29,3 km/h (5 Bft) 94,83 %
06.10.2017 13:06 12,8 C 16,7 C 12,8 C 89 % 0 lf 1018,5 hPa 0,0 l/m 0 min 0 min 241 W/m 31,4 km/h (5 Bft) 94,44 %
06.10.2017 13:08 12,9 C 16,1 C 12,8 C 89 % 0 lf 1018,5 hPa 0,0 l/m 0 min 0 min 242 W/m 25,1 km/h (4 Bft) 95,65 %
06.10.2017 13:10 12,9 C 16,1 C 12,8 C 89 % 0 lf 1018,6 hPa 0,0 l/m 2 min 0 min 304 W/m 20,9 km/h (4 Bft) 98,31 %
06.10.2017 13:12 13,0 C 16,1 C 13,3 C 89 % 0 lf 1018,6 hPa 0,0 l/m 2 min 0 min 398 W/m 25,1 km/h (4 Bft) 97,14 %
06.10.2017 13:14 13,1 C 17,8 C 13,9 C 89 % 0 lf 1018,5 hPa 0,0 l/m 2 min 0 min 461 W/m 31,4 km/h (5 Bft) 94,92 %
06.10.2017 13:16 13,2 C 20,6 C 13,9 C 88 % 0 lf 1018,6 hPa 0,0 l/m 2 min 0 min 555 W/m 20,9 km/h (4 Bft) 97,14 %
06.10.2017 13:18 13,3 C 20,0 C 13,9 C 89 % 0 lf 1018,6 hPa 0,0 l/m 2 min 0 min 555 W/m 25,1 km/h (4 Bft) 97,87 %
06.10.2017 13:20 13,4 C 19,4 C 13,3 C 88 % 0 lf 1018,6 hPa 0,0 l/m 2 min 0 min 555 W/m 18,8 km/h (3 Bft) 98,28 %
06.10.2017 13:22 13,5 C 18,3 C 13,3 C 88 % 0 lf 1018,6 hPa 0,0 l/m 0 min 0 min 267 W/m 25,1 km/h (4 Bft) 97,14 %
06.10.2017 13:24 13,5 C 16,1 C 12,2 C 87 % 2 lf 1018,6 hPa 0,0 l/m 0 min 0 min 161 W/m 27,2 km/h (4 Bft) 97,87 %
06.10.2017 13:26 13,4 C 15,0 C 11,7 C 86 % 1 lf 1018,6 hPa 0,0 l/m 0 min 0 min 123 W/m 25,1 km/h (4 Bft) 97,87 %
06.10.2017 13:28 13,4 C 14,4 C 11,1 C 85 % 0 lf 1018,6 hPa 0,0 l/m 0 min 0 min 99 W/m 23,0 km/h (4 Bft) 95,74 %
06.10.2017 13:30 13,3 C 13,9 C 11,1 C 85 % 4 lf 1018,6 hPa 0,0 l/m 0 min 2 min 91 W/m 18,8 km/h (3 Bft) 95,65 %
06.10.2017 13:32 13,3 C 13,3 C 11,1 C 85 % 14 lf 1018,7 hPa 0,0 l/m 0 min 2 min 82 W/m 14,6 km/h (3 Bft) 93,88 %
06.10.2017 13:34 13,3 C 12,8 C 10,6 C 85 % 14 lf 1018,7 hPa 0,0 l/m 0 min 2 min 76 W/m 20,9 km/h (4 Bft) 97,87 %
06.10.2017 13:36 13,2 C 12,2 C 10,6 C 85 % 13 lf 1018,7 hPa 0,0 l/m 0 min 2 min 87 W/m 31,4 km/h (5 Bft) 97,83 %
06.10.2017 13:38 13,1 C 12,2 C 10,6 C 85 % 11 lf 1018,8 hPa 0,0 l/m 0 min 0 min 103 W/m 31,4 km/h (5 Bft) 100,00 %
06.10.2017 13:40 13,1 C 12,2 C 10,6 C 85 % 9 lf 1018,8 hPa 0,0 l/m 0 min 2 min 86 W/m 23,0 km/h (4 Bft) 100,00 %
06.10.2017 13:42 13,0 C 12,2 C 10,6 C 85 % 4 lf 1018,9 hPa 0,0 l/m 0 min 2 min 70 W/m 23,0 km/h (4 Bft) 100,00 %
06.10.2017 13:44 12,9 C 12,8 C 10,6 C 85 % 15 lf 1018,9 hPa 0,0 l/m 0 min 2 min 65 W/m 16,7 km/h (3 Bft) 95,74 %
06.10.2017 13:46 12,9 C 12,2 C 10,6 C 85 % 15 lf 1018,9 hPa 0,2 l/m 0 min 2 min 57 W/m 12,6 km/h (3 Bft) 100,00 %
06.10.2017 13:48 12,8 C 12,2 C 10,0 C 85 % 15 lf 1018,9 hPa 0,0 l/m 0 min 2 min 42 W/m 6,3 km/h (2 Bft) 100,00 %
06.10.2017 13:50 12,8 C 12,2 C 10,0 C 85 % 15 lf 1018,8 hPa 0,0 l/m 0 min 2 min 35 W/m 10,5 km/h (2 Bft) 100,00 %
06.10.2017 13:52 12,7 C 11,7 C 10,0 C 85 % 15 lf 1018,8 hPa 0,2 l/m 0 min 2 min 32 W/m 8,4 km/h (2 Bft) 97,87 %
06.10.2017 13:54 12,7 C 10,6 C 9,4 C 86 % 15 lf 1018,7 hPa 0,2 l/m 0 min 2 min 29 W/m 14,6 km/h (3 Bft) 100,00 %
06.10.2017 13:56 12,6 C 10,0 C 8,9 C 85 % 15 lf 1019,0 hPa 0,2 l/m 0 min 2 min 26 W/m 27,2 km/h (4 Bft) 100,00 %
06.10.2017 13:58 12,3 C 9,4 C 7,8 C 85 % 15 lf 1019,2 hPa 0,8 l/m 0 min 2 min 28 W/m 43,9 km/h (6 Bft) 100,00 %
06.10.2017 14:00 12,1 C 9,4 C 7,8 C 85 % 15 lf 1018,8 hPa 0,0 l/m 0 min 2 min 39 W/m 12,6 km/h (3 Bft) 95,74 %
06.10.2017 14:02 11,9 C 9,4 C 8,3 C 85 % 15 lf 1018,9 hPa 0,0 l/m 0 min 2 min 85 W/m 12,6 km/h (3 Bft) 100,00 %
06.10.2017 14:04 11,8 C 9,4 C 8,9 C 85 % 15 lf 1018,8 hPa 0,0 l/m 0 min 0 min 159 W/m 14,6 km/h (3 Bft) 100,00 %
06.10.2017 14:06 11,7 C 10,0 C 8,9 C 85 % 15 lf 1018,7 hPa 0,0 l/m 0 min 2 min 123 W/m 12,6 km/h (3 Bft) 100,00 %
06.10.2017 14:08 11,7 C 10,0 C 8,9 C 86 % 15 lf 1018,9 hPa 0,0 l/m 0 min 0 min 45 W/m 12,6 km/h (3 Bft) 100,00 %
06.10.2017 14:10 11,6 C 9,4 C 8,3 C 86 % 15 lf 1019,1 hPa 0,8 l/m 0 min 2 min 27 W/m 27,2 km/h (4 Bft) 97,83 %
06.10.2017 14:12 11,4 C 9,4 C 8,9 C 86 % 15 lf 1019,0 hPa 0,2 l/m 0 min 2 min 37 W/m 12,6 km/h (3 Bft) 95,74 %
06.10.2017 14:14 11,4 C 10,0 C 8,9 C 87 % 15 lf 1018,9 hPa 0,2 l/m 0 min 2 min 50 W/m 14,6 km/h (3 Bft) 95,74 %
06.10.2017 14:16 11,4 C 10,0 C 9,4 C 88 % 15 lf 1019,0 hPa 0,0 l/m 0 min 2 min 75 W/m 25,1 km/h (4 Bft) 93,62 %
06.10.2017 14:18 11,3 C 10,0 C 9,4 C 88 % 15 lf 1019,0 hPa 0,0 l/m 0 min 2 min 105 W/m 16,7 km/h (3 Bft) 95,74 %
06.10.2017 14:20 11,3 C 10,6 C 10,0 C 89 % 15 lf 1018,9 hPa 0,0 l/m 0 min 2 min 135 W/m 23,0 km/h (4 Bft) 95,74 %
06.10.2017 14:22 11,3 C 10,6 C 10,0 C 90 % 15 lf 1019,0 hPa 0,0 l/m 0 min 2 min 161 W/m 20,9 km/h (4 Bft) 95,65 %
06.10.2017 14:24 11,3 C 11,1 C 10,0 C 90 % 15 lf 1019,1 hPa 0,0 l/m 0 min 2 min 188 W/m 23,0 km/h (4 Bft) 95,74 %
06.10.2017 14:26 11,3 C 11,7 C 10,6 C 90 % 15 lf 1019,1 hPa 0,0 l/m 0 min 2 min 196 W/m 20,9 km/h (4 Bft) 91,49 %
06.10.2017 14:28 11,4 C 11,7 C 10,6 C 91 % 15 lf 1019,0 hPa 0,0 l/m 0 min 0 min 186 W/m 14,6 km/h (3 Bft) 93,62 %
06.10.2017 14:30 11,4 C 11,7 C 10,6 C 91 % 15 lf 1019,0 hPa 0,0 l/m 0 min 2 min 181 W/m 20,9 km/h (4 Bft) 93,62 %
06.10.2017 14:32 11,5 C 11,7 C 10,6 C 92 % 15 lf 1019,0 hPa 0,0 l/m 0 min 2 min 200 W/m 25,1 km/h (4 Bft) 95,74 %
06.10.2017 14:34 11,5 C 12,2 C 10,6 C 92 % 15 lf 1018,9 hPa 0,0 l/m 0 min 0 min 161 W/m 23,0 km/h (4 Bft) 95,65 %
06.10.2017 14:36 11,6 C 13,9 C 10,6 C 92 % 15 lf 1018,9 hPa 0,0 l/m 2 min 0 min 319 W/m 18,8 km/h (3 Bft) 93,62 %
06.10.2017 14:38 11,7 C 15,6 C 11,1 C 93 % 15 lf 1018,9 hPa 0,0 l/m 2 min 0 min 444 W/m 16,7 km/h (3 Bft) 95,74 %
06.10.2017 14:40 11,8 C 16,1 C 11,1 C 93 % 15 lf 1019,0 hPa 0,0 l/m 2 min 0 min 529 W/m 23,0 km/h (4 Bft) 93,62 %
06.10.2017 14:42 12,0 C 16,7 C 11,7 C 93 % 15 lf 1018,9 hPa 0,0 l/m 2 min 0 min 543 W/m 14,6 km/h (3 Bft) 95,74 %
06.10.2017 14:44 12,2 C 17,2 C 12,2 C 94 % 15 lf 1018,9 hPa 0,0 l/m 2 min 0 min 555 W/m 20,9 km/h (4 Bft) 93,62 %
06.10.2017 14:46 12,3 C 16,1 C 11,7 C 94 % 15 lf 1018,9 hPa 0,0 l/m 2 min 0 min 526 W/m 29,3 km/h (5 Bft) 89,13 %
06.10.2017 14:48 12,4 C 15,0 C 11,7 C 94 % 15 lf 1019,0 hPa 0,0 l/m 0 min 0 min 194 W/m 23,0 km/h (4 Bft) 91,49 %
06.10.2017 14:50 12,4 C 15,0 C 11,7 C 94 % 15 lf 1019,0 hPa 0,0 l/m 0 min 0 min 233 W/m 18,8 km/h (3 Bft) 95,74 %
06.10.2017 14:52 12,4 C 16,1 C 11,7 C 94 % 15 lf 1018,9 hPa 0,0 l/m 2 min 0 min 395 W/m 23,0 km/h (4 Bft) 93,62 %
06.10.2017 14:54 12,5 C 17,2 C 11,7 C 94 % 15 lf 1019,0 hPa 0,0 l/m 2 min 0 min 507 W/m 23,0 km/h (4 Bft) 95,74 %
06.10.2017 14:56 12,6 C 17,2 C 11,7 C 94 % 15 lf 1019,0 hPa 0,0 l/m 2 min 0 min 481 W/m 25,1 km/h (4 Bft) 93,48 %
06.10.2017 14:58 12,7 C 17,2 C 11,7 C 94 % 15 lf 1019,0 hPa 0,0 l/m 2 min 0 min 478 W/m 27,2 km/h (4 Bft) 95,74 %
06.10.2017 15:00 12,8 C 17,8 C 11,7 C 94 % 15 lf 1019,1 hPa 0,0 l/m 2 min 0 min 430 W/m 20,9 km/h (4 Bft) 95,74 %
06.10.2017 15:02 12,9 C 16,1 C 11,7 C 94 % 15 lf 1019,2 hPa 0,0 l/m 2 min 0 min 304 W/m 25,1 km/h (4 Bft) 91,49 %
06.10.2017 15:04 12,9 C 15,0 C 11,7 C 93 % 15 lf 1019,2 hPa 0,0 l/m 0 min 0 min 209 W/m 33,5 km/h (5 Bft) 95,74 %
06.10.2017 15:06 12,9 C 13,9 C 11,7 C 93 % 15 lf 1019,1 hPa 0,0 l/m 0 min 0 min 148 W/m 27,2 km/h (4 Bft) 98,00 %
06.10.2017 15:10 13,0 C 17,2 C 11,7 C 92 % 12 lf 1019,2 hPa 0,0 l/m 4 min 0 min 451 W/m 31,4 km/h (5 Bft) 100,00 %
06.10.2017 15:15 13,2 C 20,0 C 12,8 C 91 % 4 lf 1019,2 hPa 0,0 l/m 5 min 0 min 481 W/m 41,8 km/h (6 Bft) 98,25 %
06.10.2017 15:20 13,4 C 18,3 C 11,7 C 89 % 1 lf 1019,2 hPa 0,0 l/m 5 min 0 min 415 W/m 25,1 km/h (4 Bft) 97,30 %
06.10.2017 15:22 13,4 C 18,9 C 11,7 C 89 % 0 lf 1019,2 hPa 0,0 l/m 2 min 0 min 480 W/m 20,9 km/h (4 Bft) 95,74 %
06.10.2017 15:24 13,4 C 17,2 C 11,1 C 88 % 0 lf 1019,1 hPa 0,0 l/m 0 min 0 min 193 W/m 29,3 km/h (5 Bft) 95,74 %
06.10.2017 15:26 13,4 C 16,1 C 11,1 C 87 % 0 lf 1019,2 hPa 0,0 l/m 0 min 0 min 96 W/m 18,8 km/h (3 Bft) 97,87 %
06.10.2017 15:28 13,4 C 15,0 C 11,1 C 87 % 0 lf 1019,1 hPa 0,0 l/m 0 min 0 min 119 W/m 33,5 km/h (5 Bft) 100,00 %
06.10.2017 15:30 13,4 C 15,0 C 11,1 C 86 % 0 lf 1019,2 hPa 0,0 l/m 0 min 0 min 141 W/m 29,3 km/h (5 Bft) 95,74 %
06.10.2017 15:32 13,4 C 16,1 C 11,7 C 86 % 0 lf 1019,1 hPa 0,0 l/m 0 min 0 min 153 W/m 18,8 km/h (3 Bft) 98,15 %
06.10.2017 15:34 13,5 C 17,8 C 11,7 C 86 % 0 lf 1019,1 hPa 0,0 l/m 0 min 0 min 153 W/m 18,8 km/h (3 Bft) 97,37 %
06.10.2017 15:36 13,6 C 19,4 C 12,2 C 86 % 0 lf 1019,1 hPa 0,0 l/m 2 min 0 min 440 W/m 20,9 km/h (4 Bft) 97,83 %
06.10.2017 15:40 13,8 C 21,1 C 12,2 C 86 % 0 lf 1019,1 hPa 0,0 l/m 4 min 0 min 500 W/m 33,5 km/h (5 Bft) 98,25 %
06.10.2017 15:45 14,2 C 21,7 C 12,2 C 86 % 0 lf 1019,1 hPa 0,0 l/m 5 min 0 min 489 W/m 25,1 km/h (4 Bft) 97,37 %
06.10.2017 15:48 14,3 C 21,7 C 11,7 C 85 % 0 lf 1019,1 hPa 0,0 l/m 3 min 0 min 455 W/m 25,1 km/h (4 Bft) 97,67 %
06.10.2017 15:50 14,4 C 21,1 C 12,2 C 85 % 0 lf 1019,1 hPa 0,0 l/m 2 min 0 min 452 W/m 18,8 km/h (3 Bft) 98,04 %
06.10.2017 15:52 14,4 C 21,1 C 12,2 C 84 % 0 lf 1019,1 hPa 0,0 l/m 2 min 0 min 448 W/m 27,2 km/h (4 Bft) 97,87 %
06.10.2017 15:54 14,6 C 21,7 C 12,2 C 84 % 0 lf 1019,2 hPa 0,0 l/m 2 min 0 min 445 W/m 23,0 km/h (4 Bft) 97,87 %
06.10.2017 15:56 14,6 C 21,1 C 12,2 C 84 % 0 lf 1019,2 hPa 0,0 l/m 2 min 0 min 441 W/m 25,1 km/h (4 Bft) 97,92 %
06.10.2017 15:58 14,7 C 21,1 C 11,7 C 84 % 0 lf 1019,2 hPa 0,0 l/m 2 min 0 min 438 W/m 31,4 km/h (5 Bft) 95,83 %
06.10.2017 16:00 14,7 C 20,6 C 11,7 C 82 % 0 lf 1019,2 hPa 0,0 l/m 2 min 0 min 434 W/m 29,3 km/h (5 Bft) 97,83 %
06.10.2017 16:02 14,7 C 20,6 C 11,7 C 82 % 0 lf 1019,2 hPa 0,0 l/m 2 min 0 min 430 W/m 20,9 km/h (4 Bft) 95,83 %
06.10.2017 16:04 14,7 C 20,6 C 11,7 C 81 % 0 lf 1019,3 hPa 0,0 l/m 2 min 0 min 427 W/m 23,0 km/h (4 Bft) 97,87 %
06.10.2017 16:06 14,7 C 20,0 C 11,7 C 81 % 0 lf 1019,3 hPa 0,0 l/m 2 min 0 min 423 W/m 29,3 km/h (5 Bft) 95,92 %
06.10.2017 16:08 14,7 C 20,0 C 11,7 C 81 % 0 lf 1019,3 hPa 0,0 l/m 2 min 0 min 419 W/m 25,1 km/h (4 Bft) 94,44 %
06.10.2017 16:10 14,7 C 19,4 C 11,1 C 80 % 0 lf 1019,3 hPa 0,0 l/m 2 min 0 min 415 W/m 29,3 km/h (5 Bft) 95,74 %
06.10.2017 16:12 14,7 C 19,4 C 11,7 C 80 % 0 lf 1019,4 hPa 0,0 l/m 2 min 0 min 411 W/m 27,2 km/h (4 Bft) 95,74 %
06.10.2017 16:14 14,7 C 20,0 C 12,2 C 81 % 0 lf 1019,3 hPa 0,0 l/m 2 min 0 min 407 W/m 25,1 km/h (4 Bft) 97,87 %
06.10.2017 16:16 14,8 C 20,0 C 11,7 C 81 % 0 lf 1019,3 hPa 0,0 l/m 2 min 0 min 403 W/m 27,2 km/h (4 Bft) 97,83 %
06.10.2017 16:18 14,8 C 20,0 C 12,2 C 81 % 0 lf 1019,4 hPa 0,0 l/m 2 min 0 min 399 W/m 18,8 km/h (3 Bft) 95,74 %
06.10.2017 16:20 14,8 C 20,6 C 12,2 C 81 % 0 lf 1019,4 hPa 0,0 l/m 2 min 0 min 395 W/m 27,2 km/h (4 Bft) 98,31 %
06.10.2017 16:22 14,8 C 20,0 C 12,2 C 81 % 0 lf 1019,3 hPa 0,0 l/m 2 min 0 min 391 W/m 27,2 km/h (4 Bft) 97,22 %
06.10.2017 16:24 14,9 C 20,0 C 12,2 C 81 % 0 lf 1019,4 hPa 0,0 l/m 2 min 0 min 387 W/m 16,7 km/h (3 Bft) 95,74 %
06.10.2017 16:26 14,9 C 20,0 C 12,2 C 81 % 0 lf 1019,4 hPa 0,0 l/m 2 min 0 min 383 W/m 27,2 km/h (4 Bft) 97,83 %
06.10.2017 16:28 14,9 C 18,9 C 12,2 C 81 % 0 lf 1019,4 hPa 0,0 l/m 2 min 0 min 379 W/m 27,2 km/h (4 Bft) 97,92 %
06.10.2017 16:30 14,9 C 18,3 C 11,7 C 80 % 0 lf 1019,5 hPa 0,0 l/m 2 min 0 min 375 W/m 23,0 km/h (4 Bft) 100,00 %
06.10.2017 16:32 14,9 C 17,2 C 11,7 C 80 % 0 lf 1019,5 hPa 0,0 l/m 2 min 0 min 370 W/m 20,9 km/h (4 Bft) 100,00 %
06.10.2017 16:34 14,9 C 16,1 C 11,7 C 80 % 0 lf 1019,5 hPa 0,0 l/m 2 min 0 min 366 W/m 12,6 km/h (3 Bft) 97,87 %
06.10.2017 16:36 14,8 C 15,6 C 11,7 C 80 % 0 lf 1019,6 hPa 0,0 l/m 2 min 0 min 362 W/m 18,8 km/h (3 Bft) 100,00 %
06.10.2017 16:38 14,8 C 15,0 C 11,7 C 80 % 0 lf 1019,6 hPa 0,0 l/m 2 min 0 min 357 W/m 18,8 km/h (3 Bft) 100,00 %
06.10.2017 16:40 14,8 C 15,0 C 11,7 C 81 % 3 lf 1019,6 hPa 0,0 l/m 2 min 2 min 353 W/m 16,7 km/h (3 Bft) 95,74 %
06.10.2017 16:42 14,7 C 15,0 C 11,7 C 81 % 3 lf 1019,5 hPa 0,0 l/m 2 min 0 min 349 W/m 18,8 km/h (3 Bft) 100,00 %
06.10.2017 16:44 14,7 C 14,4 C 11,1 C 82 % 0 lf 1019,5 hPa 0,0 l/m 2 min 0 min 344 W/m 18,8 km/h (3 Bft) 100,00 %
06.10.2017 16:46 14,6 C 14,4 C 11,1 C 82 % 0 lf 1019,6 hPa 0,0 l/m 2 min 0 min 340 W/m 12,6 km/h (3 Bft) 100,00 %
06.10.2017 16:48 14,6 C 13,9 C 11,1 C 82 % 0 lf 1019,5 hPa 0,0 l/m 2 min 0 min 335 W/m 12,6 km/h (3 Bft) 97,87 %
06.10.2017 16:50 14,5 C 13,9 C 10,6 C 82 % 0 lf 1019,5 hPa 0,0 l/m 2 min 0 min 331 W/m 12,6 km/h (3 Bft) 97,83 %
06.10.2017 16:52 14,4 C 13,3 C 11,1 C 82 % 0 lf 1019,6 hPa 0,0 l/m 2 min 0 min 326 W/m 14,6 km/h (3 Bft) 95,74 %
06.10.2017 16:54 14,3 C 13,3 C 11,1 C 82 % 3 lf 1019,6 hPa 0,0 l/m 0 min 2 min 54 W/m 14,6 km/h (3 Bft) 97,87 %
06.10.2017 16:56 14,3 C 13,3 C 11,1 C 83 % 3 lf 1019,7 hPa 0,0 l/m 0 min 0 min 132 W/m 18,8 km/h (3 Bft) 97,87 %
06.10.2017 16:58 14,2 C 13,9 C 11,7 C 83 % 2 lf 1019,8 hPa 0,0 l/m 2 min 0 min 186 W/m 23,0 km/h (4 Bft) 97,87 %
06.10.2017 17:00 14,2 C 14,4 C 11,7 C 83 % 0 lf 1019,8 hPa 0,0 l/m 2 min 0 min 215 W/m 18,8 km/h (3 Bft) 97,87 %
06.10.2017 17:02 14,2 C 13,9 C 11,1 C 84 % 0 lf 1019,7 hPa 0,0 l/m 0 min 0 min 98 W/m 23,0 km/h (4 Bft) 97,83 %
06.10.2017 17:04 14,1 C 13,9 C 10,6 C 84 % 0 lf 1019,8 hPa 0,0 l/m 0 min 0 min 71 W/m 16,7 km/h (3 Bft) 95,74 %
06.10.2017 17:06 14,1 C 13,9 C 10,6 C 83 % 0 lf 1019,8 hPa 0,0 l/m 0 min 0 min 69 W/m 23,0 km/h (4 Bft) 97,87 %
06.10.2017 17:08 13,9 C 13,3 C 10,6 C 83 % 0 lf 1019,8 hPa 0,0 l/m 0 min 0 min 62 W/m 16,7 km/h (3 Bft) 90,57 %
06.10.2017 17:10 13,8 C 13,3 C 10,6 C 83 % 0 lf 1019,8 hPa 0,0 l/m 0 min 0 min 107 W/m 23,0 km/h (4 Bft) 96,00 %
06.10.2017 17:12 13,7 C 13,3 C 10,6 C 83 % 0 lf 1019,8 hPa 0,0 l/m 0 min 0 min 83 W/m 23,0 km/h (4 Bft) 93,48 %
06.10.2017 17:14 13,7 C 13,3 C 10,6 C 83 % 0 lf 1019,8 hPa 0,0 l/m 0 min 0 min 70 W/m 16,7 km/h (3 Bft) 94,74 %
06.10.2017 17:16 13,6 C 12,8 C 10,6 C 83 % 0 lf 1019,8 hPa 0,0 l/m 0 min 0 min 69 W/m 14,6 km/h (3 Bft) 97,87 %
06.10.2017 17:18 13,5 C 12,8 C 10,0 C 83 % 0 lf 1019,9 hPa 0,0 l/m 0 min 0 min 49 W/m 23,0 km/h (4 Bft) 96,23 %
06.10.2017 17:20 13,4 C 12,8 C 10,0 C 83 % 0 lf 1019,9 hPa 0,0 l/m 0 min 0 min 58 W/m 23,0 km/h (4 Bft) 95,74 %
06.10.2017 17:22 13,3 C 12,8 C 10,0 C 83 % 0 lf 1020,0 hPa 0,0 l/m 0 min 0 min 54 W/m 31,4 km/h (5 Bft) 91,49 %
06.10.2017 17:24 13,3 C 12,8 C 10,0 C 83 % 0 lf 1020,0 hPa 0,0 l/m 0 min 0 min 49 W/m 23,0 km/h (4 Bft) 95,65 %
06.10.2017 17:26 13,2 C 12,8 C 10,0 C 84 % 0 lf 1019,9 hPa 0,0 l/m 2 min 0 min 265 W/m 18,8 km/h (3 Bft) 100,00 %
06.10.2017 17:28 13,1 C 12,8 C 10,0 C 84 % 0 lf 1019,9 hPa 0,0 l/m 2 min 0 min 239 W/m 27,2 km/h (4 Bft) 93,75 %
06.10.2017 17:30 13,1 C 12,8 C 10,0 C 84 % 0 lf 1020,0 hPa 0,0 l/m 2 min 0 min 234 W/m 23,0 km/h (4 Bft) 93,75 %
06.10.2017 17:32 13,1 C 12,8 C 10,0 C 84 % 0 lf 1019,9 hPa 0,0 l/m 2 min 0 min 229 W/m 20,9 km/h (4 Bft) 95,74 %
06.10.2017 17:34 13,1 C 12,8 C 10,0 C 85 % 0 lf 1019,9 hPa 0,0 l/m 2 min 0 min 224 W/m 18,8 km/h (3 Bft) 93,48 %
06.10.2017 17:36 13,0 C 12,8 C 10,0 C 85 % 0 lf 1019,9 hPa 0,0 l/m 2 min 0 min 218 W/m 16,7 km/h (3 Bft) 93,62 %
06.10.2017 17:38 13,0 C 12,8 C 10,0 C 85 % 0 lf 1020,0 hPa 0,0 l/m 2 min 0 min 213 W/m 18,8 km/h (3 Bft) 95,83 %
06.10.2017 17:40 12,9 C 12,8 C 10,0 C 85 % 0 lf 1020,0 hPa 0,0 l/m 2 min 0 min 208 W/m 18,8 km/h (3 Bft) 93,62 %
06.10.2017 17:42 12,9 C 12,8 C 10,0 C 85 % 0 lf 1020,0 hPa 0,0 l/m 2 min 0 min 203 W/m 18,8 km/h (3 Bft) 97,87 %
06.10.2017 17:44 12,9 C 12,8 C 10,0 C 85 % 0 lf 1020,1 hPa 0,0 l/m 2 min 0 min 197 W/m 12,6 km/h (3 Bft) 95,74 %
06.10.2017 17:46 12,9 C 12,8 C 10,0 C 86 % 0 lf 1020,0 hPa 0,0 l/m 2 min 0 min 192 W/m 16,7 km/h (3 Bft) 95,74 %
06.10.2017 17:48 12,9 C 12,8 C 10,0 C 86 % 0 lf 1020,2 hPa 0,0 l/m 2 min 0 min 187 W/m 23,0 km/h (4 Bft) 95,83 %
06.10.2017 17:50 12,8 C 12,2 C 10,0 C 86 % 0 lf 1020,2 hPa 0,0 l/m 2 min 0 min 182 W/m 20,9 km/h (4 Bft) 93,62 %
06.10.2017 17:52 12,8 C 12,2 C 10,0 C 86 % 0 lf 1020,2 hPa 0,0 l/m 2 min 0 min 176 W/m 14,6 km/h (3 Bft) 91,49 %
06.10.2017 17:54 12,8 C 12,2 C 10,0 C 86 % 0 lf 1020,1 hPa 0,0 l/m 2 min 0 min 171 W/m 14,6 km/h (3 Bft) 95,74 %
06.10.2017 17:56 12,7 C 12,2 C 10,0 C 86 % 0 lf 1020,2 hPa 0,0 l/m 2 min 0 min 166 W/m 14,6 km/h (3 Bft) 91,67 %
06.10.2017 17:58 12,7 C 12,2 C 10,0 C 86 % 0 lf 1020,2 hPa 0,0 l/m 2 min 0 min 160 W/m 20,9 km/h (4 Bft) 93,48 %
06.10.2017 18:00 12,7 C 12,2 C 10,0 C 86 % 0 lf 1020,3 hPa 0,0 l/m 2 min 0 min 155 W/m 25,1 km/h (4 Bft) 95,74 %
06.10.2017 18:02 12,6 C 12,2 C 9,4 C 86 % 0 lf 1020,2 hPa 0,0 l/m 2 min 0 min 149 W/m 18,8 km/h (3 Bft) 93,62 %
06.10.2017 18:04 12,6 C 11,7 C 9,4 C 86 % 0 lf 1020,2 hPa 0,0 l/m 2 min 0 min 144 W/m 16,7 km/h (3 Bft) 97,96 %
06.10.2017 18:06 12,6 C 11,7 C 9,4 C 86 % 0 lf 1020,2 hPa 0,0 l/m 2 min 0 min 138 W/m 14,6 km/h (3 Bft) 94,44 %
06.10.2017 18:10 12,5 C 11,7 C 9,4 C 86 % 0 lf 1020,3 hPa 0,0 l/m 4 min 0 min 127 W/m 14,6 km/h (3 Bft) 97,89 %
06.10.2017 18:12 12,4 C 11,7 C 9,4 C 86 % 0 lf 1020,3 hPa 0,0 l/m 2 min 0 min 122 W/m 18,8 km/h (3 Bft) 100,00 %
06.10.2017 18:14 12,4 C 11,7 C 9,4 C 86 % 0 lf 1020,3 hPa 0,0 l/m 2 min 0 min 116 W/m 18,8 km/h (3 Bft) 100,00 %
06.10.2017 18:16 12,4 C 11,7 C 9,4 C 86 % 0 lf 1020,3 hPa 0,0 l/m 2 min 0 min 111 W/m 18,8 km/h (3 Bft) 97,87 %
06.10.2017 18:18 12,3 C 11,7 C 9,4 C 86 % 0 lf 1020,3 hPa 0,0 l/m 2 min 0 min 105 W/m 10,5 km/h (2 Bft) 97,87 %
06.10.2017 18:20 12,3 C 11,7 C 9,4 C 86 % 0 lf 1020,3 hPa 0,0 l/m 2 min 0 min 100 W/m 18,8 km/h (3 Bft) 100,00 %
06.10.2017 18:22 12,3 C 11,7 C 9,4 C 87 % 0 lf 1020,3 hPa 0,0 l/m 2 min 0 min 94 W/m 18,8 km/h (3 Bft) 100,00 %
06.10.2017 18:24 12,3 C 11,7 C 9,4 C 87 % 0 lf 1020,4 hPa 0,0 l/m 2 min 0 min 89 W/m 10,5 km/h (2 Bft) 100,00 %
06.10.2017 18:26 12,3 C 11,7 C 9,4 C 87 % 0 lf 1020,4 hPa 0,0 l/m 2 min 0 min 83 W/m 12,6 km/h (3 Bft) 100,00 %
06.10.2017 18:28 12,2 C 11,7 C 9,4 C 87 % 0 lf 1020,4 hPa 0,0 l/m 2 min 0 min 77 W/m 10,5 km/h (2 Bft) 97,87 %
06.10.2017 18:30 12,2 C 11,7 C 9,4 C 87 % 0 lf 1020,5 hPa 0,0 l/m 2 min 0 min 72 W/m 10,5 km/h (2 Bft) 95,74 %
06.10.2017 18:32 12,2 C 11,7 C 9,4 C 87 % 0 lf 1020,5 hPa 0,0 l/m 2 min 0 min 66 W/m 12,6 km/h (3 Bft) 100,00 %
06.10.2017 18:34 12,2 C 11,7 C 9,4 C 87 % 0 lf 1020,6 hPa 0,0 l/m 2 min 0 min 60 W/m 12,6 km/h (3 Bft) 100,00 %
06.10.2017 18:36 12,2 C 11,1 C 9,4 C 87 % 0 lf 1020,5 hPa 0,0 l/m 2 min 0 min 55 W/m 12,6 km/h (3 Bft) 100,00 %
06.10.2017 18:38 12,1 C 11,1 C 9,4 C 87 % 0 lf 1020,6 hPa 0,0 l/m 2 min 0 min 49 W/m 10,5 km/h (2 Bft) 93,62 %
06.10.2017 18:40 12,1 C 11,1 C 8,9 C 87 % 0 lf 1020,7 hPa 0,0 l/m 2 min 0 min 43 W/m 8,4 km/h (2 Bft) 100,00 %
06.10.2017 18:42 12,1 C 11,1 C 9,4 C 87 % 0 lf 1020,7 hPa 0,0 l/m 2 min 0 min 38 W/m 16,7 km/h (3 Bft) 97,87 %
06.10.2017 18:44 12,1 C 11,1 C 9,4 C 88 % 0 lf 1020,7 hPa 0,0 l/m 2 min 0 min 32 W/m 23,0 km/h (4 Bft) 97,87 %
06.10.2017 18:46 12,0 C 11,1 C 9,4 C 88 % 0 lf 1020,8 hPa 0,0 l/m 2 min 0 min 26 W/m 20,9 km/h (4 Bft) 95,74 %
06.10.2017 18:48 12,0 C 11,1 C 9,4 C 88 % 0 lf 1020,8 hPa 0,0 l/m 2 min 0 min 21 W/m 23,0 km/h (4 Bft) 95,83 %
06.10.2017 18:50 11,9 C 11,1 C 9,4 C 88 % 0 lf 1020,7 hPa 0,0 l/m 0 min 0 min 15 W/m 14,6 km/h (3 Bft) 97,87 %
06.10.2017 18:52 11,9 C 11,1 C 9,4 C 88 % 0 lf 1020,8 hPa 0,0 l/m 0 min 0 min 9 W/m 12,6 km/h (3 Bft) 95,74 %
06.10.2017 18:54 11,9 C 11,1 C 8,9 C 88 % 0 lf 1020,8 hPa 0,0 l/m 0 min 0 min 3 W/m 12,6 km/h (3 Bft) 95,74 %
06.10.2017 18:56 11,9 C 11,1 C 9,4 C 88 % 0 lf 1020,8 hPa 0,0 l/m 0 min 0 min 4 W/m 23,0 km/h (4 Bft) 93,62 %
06.10.2017 18:58 11,8 C 11,1 C 9,4 C 88 % 0 lf 1020,8 hPa 0,0 l/m 0 min 0 min 11 W/m 14,6 km/h (3 Bft) 95,74 %
06.10.2017 19:00 11,8 C 11,1 C 9,4 C 89 % 0 lf 1020,9 hPa 0,0 l/m 0 min 0 min 11 W/m 16,7 km/h (3 Bft) 91,49 %
06.10.2017 19:02 11,8 C 10,6 C 8,9 C 89 % 0 lf 1020,8 hPa 0,0 l/m 0 min 0 min 1 W/m 8,4 km/h (2 Bft) 94,00 %
06.10.2017 19:04 11,8 C 10,6 C 8,9 C 89 % 0 lf 1020,8 hPa 0,0 l/m 0 min 0 min 11 W/m 14,6 km/h (3 Bft) 97,37 %
06.10.2017 19:06 11,7 C 10,6 C 8,9 C 89 % 0 lf 1020,8 hPa 0,0 l/m 0 min 0 min 11 W/m 18,8 km/h (3 Bft) 93,62 %
06.10.2017 19:08 11,7 C 10,6 C 8,9 C 89 % 0 lf 1020,9 hPa 0,0 l/m 0 min 0 min 11 W/m 10,5 km/h (2 Bft) 95,74 %
06.10.2017 19:10 11,7 C 10,6 C 8,9 C 89 % 0 lf 1021,0 hPa 0,0 l/m 0 min 0 min 11 W/m 16,7 km/h (3 Bft) 95,65 %
06.10.2017 19:12 11,7 C 10,6 C 8,9 C 89 % 0 lf 1021,0 hPa 0,0 l/m 0 min 0 min 0 W/m 14,6 km/h (3 Bft) 93,62 %
06.10.2017 19:14 11,6 C 10,6 C 8,9 C 89 % 0 lf 1021,0 hPa 0,0 l/m 0 min 0 min 0 W/m 10,5 km/h (2 Bft) 95,74 %
06.10.2017 19:16 11,6 C 10,6 C 8,9 C 89 % 0 lf 1021,0 hPa 0,0 l/m 0 min 0 min 0 W/m 12,6 km/h (3 Bft) 95,74 %
06.10.2017 19:18 11,6 C 10,6 C 8,9 C 89 % 0 lf 1021,1 hPa 0,0 l/m 0 min 0 min 0 W/m 12,6 km/h (3 Bft) 95,74 %
06.10.2017 19:20 11,5 C 10,6 C 8,9 C 89 % 0 lf 1021,1 hPa 0,0 l/m 0 min 0 min 0 W/m 12,6 km/h (3 Bft) 93,10 %
06.10.2017 19:22 11,4 C 10,6 C 8,9 C 89 % 0 lf 1021,1 hPa 0,0 l/m 0 min 0 min 0 W/m 12,6 km/h (3 Bft) 97,14 %
06.10.2017 19:24 11,4 C 10,6 C 8,9 C 89 % 0 lf 1021,1 hPa 0,0 l/m 0 min 0 min 0 W/m 12,6 km/h (3 Bft) 91,49 %
06.10.2017 19:26 11,4 C 10,6 C 8,9 C 89 % 0 lf 1021,1 hPa 0,0 l/m 0 min 0 min 0 W/m 12,6 km/h (3 Bft) 100,00 %
06.10.2017 19:28 11,4 C 10,6 C 8,9 C 89 % 0 lf 1021,2 hPa 0,0 l/m 0 min 0 min 0 W/m 12,6 km/h (3 Bft) 97,87 %
06.10.2017 19:30 11,3 C 10,6 C 8,9 C 90 % 0 lf 1021,2 hPa 0,0 l/m 0 min 0 min 0 W/m 10,5 km/h (2 Bft) 100,00 %
06.10.2017 19:32 11,3 C 10,6 C 8,9 C 89 % 0 lf 1021,3 hPa 0,0 l/m 0 min 0 min 0 W/m 20,9 km/h (4 Bft) 100,00 %
06.10.2017 19:34 11,3 C 10,6 C 8,9 C 90 % 0 lf 1021,3 hPa 0,0 l/m 0 min 0 min 0 W/m 14,6 km/h (3 Bft) 100,00 %
06.10.2017 19:36 11,2 C 10,6 C 8,9 C 90 % 0 lf 1021,4 hPa 0,0 l/m 0 min 0 min 0 W/m 18,8 km/h (3 Bft) 100,00 %
06.10.2017 19:38 11,2 C 10,6 C 8,9 C 90 % 0 lf 1021,4 hPa 0,0 l/m 0 min 0 min 0 W/m 14,6 km/h (3 Bft) 100,00 %
06.10.2017 19:40 11,2 C 10,6 C 8,9 C 90 % 0 lf 1021,4 hPa 0,0 l/m 0 min 0 min 3 W/m 12,6 km/h (3 Bft) 93,62 %
06.10.2017 19:42 11,2 C 10,0 C 8,9 C 90 % 0 lf 1021,4 hPa 0,0 l/m 0 min 0 min 1 W/m 14,6 km/h (3 Bft) 100,00 %
06.10.2017 19:44 11,1 C 10,0 C 8,3 C 90 % 0 lf 1021,4 hPa 0,0 l/m 0 min 0 min 2 W/m 18,8 km/h (3 Bft) 100,00 %
06.10.2017 19:46 11,1 C 10,0 C 8,3 C 90 % 0 lf 1021,5 hPa 0,0 l/m 0 min 0 min 0 W/m 12,6 km/h (3 Bft) 100,00 %
06.10.2017 19:48 11,1 C 10,0 C 8,3 C 90 % 0 lf 1021,5 hPa 0,0 l/m 0 min 0 min 4 W/m 16,7 km/h (3 Bft) 97,92 %
06.10.2017 19:50 11,1 C 10,0 C 8,3 C 90 % 0 lf 1021,6 hPa 0,0 l/m 0 min 0 min 5 W/m 12,6 km/h (3 Bft) 100,00 %
06.10.2017 19:52 11,0 C 10,0 C 8,3 C 90 % 0 lf 1021,6 hPa 0,0 l/m 0 min 0 min 5 W/m 14,6 km/h (3 Bft) 100,00 %
06.10.2017 19:54 11,0 C 10,0 C 8,3 C 90 % 0 lf 1021,6 hPa 0,0 l/m 0 min 0 min 5 W/m 18,8 km/h (3 Bft) 100,00 %
06.10.2017 19:56 11,0 C 10,0 C 8,3 C 90 % 0 lf 1021,6 hPa 0,0 l/m 0 min 0 min 5 W/m 18,8 km/h (3 Bft) 97,87 %
06.10.2017 19:58 10,9 C 10,0 C 8,3 C 90 % 0 lf 1021,6 hPa 0,0 l/m 0 min 0 min 0 W/m 18,8 km/h (3 Bft) 97,87 %
06.10.2017 20:00 10,9 C 10,0 C 8,3 C 90 % 0 lf 1021,6 hPa 0,0 l/m 0 min 0 min 5 W/m 12,6 km/h (3 Bft) 100,00 %
06.10.2017 20:02 10,9 C 10,0 C 8,3 C 90 % 0 lf 1021,6 hPa 0,0 l/m 0 min 0 min 0 W/m 12,6 km/h (3 Bft) 100,00 %
06.10.2017 20:04 10,9 C 10,0 C 8,3 C 90 % 0 lf 1021,7 hPa 0,0 l/m 0 min 0 min 5 W/m 18,8 km/h (3 Bft) 97,87 %
06.10.2017 20:06 10,9 C 10,0 C 8,3 C 90 % 0 lf 1021,6 hPa 0,0 l/m 0 min 0 min 0 W/m 14,6 km/h (3 Bft) 100,00 %
06.10.2017 20:08 10,9 C 10,0 C 8,3 C 90 % 0 lf 1021,7 hPa 0,0 l/m 0 min 0 min 0 W/m 16,7 km/h (3 Bft) 97,83 %
06.10.2017 20:10 10,8 C 10,0 C 8,3 C 91 % 0 lf 1021,7 hPa 0,0 l/m 0 min 0 min 5 W/m 18,8 km/h (3 Bft) 97,87 %
06.10.2017 20:12 10,8 C 10,0 C 8,3 C 91 % 0 lf 1021,7 hPa 0,0 l/m 0 min 0 min 0 W/m 16,7 km/h (3 Bft) 100,00 %
06.10.2017 20:14 10,8 C 10,0 C 8,3 C 91 % 0 lf 1021,7 hPa 0,0 l/m 0 min 0 min 0 W/m 10,5 km/h (2 Bft) 97,87 %
06.10.2017 20:16 10,8 C 10,0 C 8,3 C 91 % 0 lf 1021,6 hPa 0,0 l/m 0 min 0 min 0 W/m 16,7 km/h (3 Bft) 100,00 %
06.10.2017 20:18 10,8 C 10,0 C 8,3 C 91 % 0 lf 1021,7 hPa 0,0 l/m 0 min 0 min 0 W/m 10,5 km/h (2 Bft) 100,00 %
06.10.2017 20:20 10,7 C 10,0 C 8,3 C 91 % 0 lf 1021,7 hPa 0,0 l/m 0 min 0 min 0 W/m 16,7 km/h (3 Bft) 97,83 %
06.10.2017 20:22 10,7 C 10,0 C 8,3 C 91 % 0 lf 1021,6 hPa 0,0 l/m 0 min 0 min 0 W/m 10,5 km/h (2 Bft) 97,92 %
06.10.2017 20:24 10,7 C 10,0 C 8,3 C 91 % 0 lf 1021,7 hPa 0,0 l/m 0 min 0 min 0 W/m 20,9 km/h (4 Bft) 97,87 %
06.10.2017 20:26 10,7 C 10,0 C 8,3 C 91 % 0 lf 1021,8 hPa 0,0 l/m 0 min 0 min 0 W/m 18,8 km/h (3 Bft) 97,92 %
06.10.2017 20:28 10,7 C 10,0 C 8,3 C 91 % 0 lf 1021,9 hPa 0,0 l/m 0 min 0 min 0 W/m 16,7 km/h (3 Bft) 95,74 %
06.10.2017 20:30 10,6 C 10,0 C 8,3 C 91 % 0 lf 1021,9 hPa 0,0 l/m 0 min 0 min 0 W/m 14,6 km/h (3 Bft) 97,83 %
06.10.2017 20:32 10,6 C 10,0 C 8,3 C 91 % 0 lf 1021,9 hPa 0,0 l/m 0 min 0 min 0 W/m 16,7 km/h (3 Bft) 95,74 %
06.10.2017 20:34 10,6 C 10,0 C 8,3 C 91 % 0 lf 1021,9 hPa 0,0 l/m 0 min 0 min 0 W/m 14,6 km/h (3 Bft) 95,74 %
06.10.2017 20:36 10,6 C 9,4 C 8,3 C 91 % 0 lf 1021,9 hPa 0,0 l/m 0 min 0 min 0 W/m 12,6 km/h (3 Bft) 97,92 %
06.10.2017 20:38 10,6 C 9,4 C 7,8 C 91 % 0 lf 1021,9 hPa 0,0 l/m 0 min 0 min 0 W/m 10,5 km/h (2 Bft) 95,74 %
06.10.2017 20:40 10,6 C 9,4 C 7,8 C 91 % 0 lf 1022,0 hPa 0,0 l/m 0 min 0 min 0 W/m 12,6 km/h (3 Bft) 97,87 %
06.10.2017 20:42 10,5 C 9,4 C 7,8 C 91 % 0 lf 1021,9 hPa 0,0 l/m 0 min 0 min 0 W/m 14,6 km/h (3 Bft) 97,87 %
06.10.2017 20:44 10,5 C 9,4 C 7,8 C 91 % 0 lf 1021,9 hPa 0,0 l/m 0 min 0 min 0 W/m 10,5 km/h (2 Bft) 100,00 %
06.10.2017 20:46 10,5 C 9,4 C 7,8 C 91 % 0 lf 1021,9 hPa 0,0 l/m 0 min 0 min 3 W/m 14,6 km/h (3 Bft) 94,44 %
06.10.2017 20:48 10,4 C 9,4 C 7,8 C 91 % 0 lf 1021,9 hPa 0,0 l/m 0 min 0 min 0 W/m 10,5 km/h (2 Bft) 95,74 %
06.10.2017 20:50 10,4 C 9,4 C 7,8 C 91 % 0 lf 1022,0 hPa 0,0 l/m 0 min 0 min 0 W/m 12,6 km/h (3 Bft) 93,22 %
06.10.2017 20:52 10,4 C 9,4 C 7,8 C 91 % 0 lf 1022,0 hPa 0,0 l/m 0 min 0 min 0 W/m 12,6 km/h (3 Bft) 91,67 %
06.10.2017 20:54 10,4 C 9,4 C 7,8 C 91 % 0 lf 1022,0 hPa 0,0 l/m 0 min 0 min 2 W/m 10,5 km/h (2 Bft) 93,62 %
06.10.2017 20:56 10,3 C 9,4 C 7,8 C 91 % 0 lf 1022,1 hPa 0,0 l/m 0 min 0 min 5 W/m 12,6 km/h (3 Bft) 89,13 %
06.10.2017 20:58 10,3 C 9,4 C 7,8 C 91 % 0 lf 1022,1 hPa 0,0 l/m 0 min 0 min 5 W/m 10,5 km/h (2 Bft) 89,58 %
06.10.2017 21:00 10,3 C 9,4 C 7,8 C 91 % 0 lf 1022,1 hPa 0,0 l/m 0 min 0 min 5 W/m 8,4 km/h (2 Bft) 93,62 %
06.10.2017 21:02 10,3 C 9,4 C 7,8 C 91 % 0 lf 1022,0 hPa 0,0 l/m 0 min 0 min 0 W/m 12,6 km/h (3 Bft) 94,44 %
06.10.2017 21:04 10,2 C 9,4 C 7,8 C 91 % 0 lf 1022,1 hPa 0,0 l/m 0 min 0 min 0 W/m 12,6 km/h (3 Bft) 93,22 %
06.10.2017 21:06 10,2 C 9,4 C 7,8 C 91 % 0 lf 1022,1 hPa 0,0 l/m 0 min 0 min 0 W/m 10,5 km/h (2 Bft) 86,96 %
06.10.2017 21:08 10,2 C 9,4 C 7,8 C 91 % 0 lf 1022,1 hPa 0,0 l/m 0 min 0 min 0 W/m 8,4 km/h (2 Bft) 91,49 %
06.10.2017 21:10 10,2 C 9,4 C 7,8 C 92 % 0 lf 1022,1 hPa 0,0 l/m 0 min 0 min 0 W/m 14,6 km/h (3 Bft) 95,74 %
06.10.2017 21:12 10,2 C 9,4 C 7,8 C 92 % 0 lf 1022,2 hPa 0,0 l/m 0 min 0 min 0 W/m 14,6 km/h (3 Bft) 95,74 %
06.10.2017 21:14 10,2 C 9,4 C 7,8 C 92 % 0 lf 1022,2 hPa 0,0 l/m 0 min 0 min 0 W/m 14,6 km/h (3 Bft) 93,62 %
06.10.2017 21:16 10,1 C 9,4 C 7,8 C 92 % 0 lf 1022,2 hPa 0,0 l/m 0 min 0 min 0 W/m 12,6 km/h (3 Bft) 95,74 %
06.10.2017 21:18 10,1 C 9,4 C 7,8 C 92 % 0 lf 1022,2 hPa 0,0 l/m 0 min 0 min 0 W/m 10,5 km/h (2 Bft) 95,65 %
06.10.2017 21:20 10,1 C 9,4 C 7,8 C 92 % 0 lf 1022,2 hPa 0,0 l/m 0 min 0 min 0 W/m 8,4 km/h (2 Bft) 93,62 %
06.10.2017 21:22 10,1 C 9,4 C 7,8 C 92 % 0 lf 1022,3 hPa 0,0 l/m 0 min 0 min 3 W/m 14,6 km/h (3 Bft) 95,74 %
06.10.2017 21:24 10,0 C 9,4 C 7,8 C 92 % 0 lf 1022,2 hPa 0,0 l/m 0 min 0 min 0 W/m 12,6 km/h (3 Bft) 95,74 %
06.10.2017 21:26 10,0 C 9,4 C 7,8 C 92 % 0 lf 1022,2 hPa 0,0 l/m 0 min 0 min 1 W/m 20,9 km/h (4 Bft) 95,74 %
06.10.2017 21:28 10,0 C 9,4 C 7,8 C 92 % 0 lf 1022,2 hPa 0,0 l/m 0 min 0 min 5 W/m 16,7 km/h (3 Bft) 95,74 %
06.10.2017 21:30 10,0 C 9,4 C 7,8 C 92 % 0 lf 1022,2 hPa 0,0 l/m 0 min 0 min 5 W/m 14,6 km/h (3 Bft) 93,48 %
06.10.2017 21:32 9,9 C 9,4 C 7,8 C 92 % 0 lf 1022,3 hPa 0,0 l/m 0 min 0 min 5 W/m 12,6 km/h (3 Bft) 95,74 %
06.10.2017 21:34 9,9 C 9,4 C 7,8 C 92 % 0 lf 1022,3 hPa 0,0 l/m 0 min 0 min 5 W/m 8,4 km/h (2 Bft) 95,74 %
06.10.2017 21:36 9,9 C 9,4 C 7,8 C 92 % 0 lf 1022,3 hPa 0,0 l/m 0 min 0 min 5 W/m 16,7 km/h (3 Bft) 95,74 %
06.10.2017 21:38 9,9 C 9,4 C 7,8 C 92 % 0 lf 1022,3 hPa 0,0 l/m 0 min 0 min 0 W/m 20,9 km/h (4 Bft) 93,62 %
06.10.2017 21:40 9,9 C 9,4 C 7,8 C 93 % 0 lf 1022,4 hPa 0,0 l/m 0 min 0 min 0 W/m 16,7 km/h (3 Bft) 93,62 %
06.10.2017 21:42 9,9 C 9,4 C 7,8 C 93 % 0 lf 1022,4 hPa 0,0 l/m 0 min 0 min 0 W/m 12,6 km/h (3 Bft) 95,65 %
06.10.2017 21:44 9,9 C 9,4 C 7,8 C 93 % 0 lf 1022,3 hPa 0,0 l/m 0 min 0 min 0 W/m 18,8 km/h (3 Bft) 95,74 %
06.10.2017 21:46 9,9 C 9,4 C 8,3 C 93 % 0 lf 1022,3 hPa 0,0 l/m 0 min 0 min 0 W/m 14,6 km/h (3 Bft) 93,62 %
06.10.2017 21:48 9,9 C 9,4 C 8,3 C 93 % 0 lf 1022,4 hPa 0,0 l/m 0 min 0 min 0 W/m 16,7 km/h (3 Bft) 93,62 %
06.10.2017 21:50 9,9 C 9,4 C 8,3 C 93 % 0 lf 1022,4 hPa 0,0 l/m 0 min 0 min 0 W/m 10,5 km/h (2 Bft) 95,74 %
06.10.2017 21:52 9,9 C 9,4 C 8,3 C 93 % 0 lf 1022,3 hPa 0,0 l/m 0 min 0 min 0 W/m 12,6 km/h (3 Bft) 95,74 %
06.10.2017 21:54 9,9 C 9,4 C 8,3 C 93 % 0 lf 1022,4 hPa 0,0 l/m 0 min 0 min 0 W/m 14,6 km/h (3 Bft) 95,65 %
06.10.2017 21:56 9,9 C 10,0 C 8,3 C 93 % 0 lf 1022,4 hPa 0,0 l/m 0 min 0 min 0 W/m 12,6 km/h (3 Bft) 93,62 %
06.10.2017 21:58 10,0 C 10,0 C 8,9 C 93 % 0 lf 1022,4 hPa 0,0 l/m 0 min 0 min 0 W/m 18,8 km/h (3 Bft) 93,62 %
06.10.2017 22:00 10,0 C 10,0 C 8,9 C 93 % 0 lf 1022,5 hPa 0,0 l/m 0 min 0 min 0 W/m 14,6 km/h (3 Bft) 95,74 %
06.10.2017 22:02 10,0 C 10,0 C 8,9 C 93 % 0 lf 1022,5 hPa 0,0 l/m 0 min 0 min 0 W/m 8,4 km/h (2 Bft) 96,00 %
06.10.2017 22:04 10,0 C 10,0 C 8,9 C 93 % 0 lf 1022,4 hPa 0,0 l/m 0 min 0 min 0 W/m 12,6 km/h (3 Bft) 93,62 %
06.10.2017 22:06 10,0 C 10,0 C 8,9 C 93 % 0 lf 1022,5 hPa 0,0 l/m 0 min 0 min 0 W/m 18,8 km/h (3 Bft) 95,65 %
06.10.2017 22:08 10,0 C 10,0 C 8,9 C 93 % 0 lf 1022,5 hPa 0,0 l/m 0 min 0 min 0 W/m 20,9 km/h (4 Bft) 100,00 %
06.10.2017 22:10 10,0 C 10,0 C 8,9 C 93 % 0 lf 1022,5 hPa 0,0 l/m 0 min 0 min 0 W/m 18,8 km/h (3 Bft) 100,00 %
06.10.2017 22:12 10,1 C 10,0 C 8,9 C 93 % 0 lf 1022,6 hPa 0,0 l/m 0 min 0 min 0 W/m 12,6 km/h (3 Bft) 93,62 %
06.10.2017 22:14 10,1 C 10,0 C 8,9 C 93 % 0 lf 1022,5 hPa 0,0 l/m 0 min 0 min 0 W/m 16,7 km/h (3 Bft) 97,87 %
06.10.2017 22:16 10,1 C 10,0 C 8,9 C 93 % 0 lf 1022,5 hPa 0,0 l/m 0 min 0 min 0 W/m 16,7 km/h (3 Bft) 100,00 %
06.10.2017 22:18 10,1 C 10,0 C 8,9 C 94 % 0 lf 1022,5 hPa 0,0 l/m 0 min 0 min 0 W/m 8,4 km/h (2 Bft) 100,00 %
06.10.2017 22:20 10,1 C 10,0 C 8,9 C 94 % 0 lf 1022,4 hPa 0,0 l/m 0 min 0 min 0 W/m 10,5 km/h (2 Bft) 97,87 %
06.10.2017 22:22 10,1 C 10,0 C 8,9 C 94 % 0 lf 1022,5 hPa 0,0 l/m 0 min 0 min 0 W/m 14,6 km/h (3 Bft) 97,87 %
06.10.2017 22:24 10,1 C 10,0 C 8,3 C 94 % 0 lf 1022,5 hPa 0,0 l/m 0 min 0 min 0 W/m 10,5 km/h (2 Bft) 100,00 %
06.10.2017 22:26 10,1 C 9,4 C 8,3 C 94 % 0 lf 1022,4 hPa 0,0 l/m 0 min 0 min 0 W/m 10,5 km/h (2 Bft) 100,00 %
06.10.2017 22:28 10,1 C 9,4 C 8,3 C 94 % 0 lf 1022,5 hPa 0,0 l/m 0 min 0 min 0 W/m 20,9 km/h (4 Bft) 97,83 %
06.10.2017 22:30 10,1 C 9,4 C 8,3 C 93 % 0 lf 1022,5 hPa 0,0 l/m 0 min 0 min 0 W/m 10,5 km/h (2 Bft) 97,87 %
06.10.2017 22:32 10,1 C 9,4 C 8,3 C 93 % 0 lf 1022,5 hPa 0,0 l/m 0 min 0 min 0 W/m 6,3 km/h (2 Bft) 95,74 %
06.10.2017 22:34 10,1 C 9,4 C 7,8 C 93 % 0 lf 1022,5 hPa 0,0 l/m 0 min 0 min 0 W/m 8,4 km/h (2 Bft) 100,00 %
06.10.2017 22:36 10,0 C 9,4 C 7,8 C 93 % 0 lf 1022,5 hPa 0,0 l/m 0 min 0 min 0 W/m 8,4 km/h (2 Bft) 100,00 %
06.10.2017 22:38 10,0 C 8,9 C 7,8 C 93 % 0 lf 1022,5 hPa 0,0 l/m 0 min 0 min 0 W/m 6,3 km/h (2 Bft) 95,74 %
06.10.2017 22:40 10,0 C 8,9 C 7,8 C 93 % 0 lf 1022,6 hPa 0,0 l/m 0 min 0 min 0 W/m 8,4 km/h (2 Bft) 95,24 %
06.10.2017 22:42 9,9 C 8,9 C 7,8 C 93 % 0 lf 1022,6 hPa 0,0 l/m 0 min 0 min 0 W/m 10,5 km/h (2 Bft) 97,83 %
06.10.2017 22:44 9,9 C 8,9 C 7,8 C 93 % 0 lf 1022,7 hPa 0,0 l/m 0 min 0 min 0 W/m 10,5 km/h (2 Bft) 93,62 %
06.10.2017 22:46 9,9 C 8,9 C 7,8 C 93 % 0 lf 1022,6 hPa 0,0 l/m 0 min 0 min 0 W/m 8,4 km/h (2 Bft) 97,92 %
06.10.2017 22:48 9,9 C 8,9 C 7,8 C 93 % 0 lf 1022,5 hPa 0,0 l/m 0 min 0 min 0 W/m 6,3 km/h (2 Bft) 93,62 %
06.10.2017 22:50 9,9 C 8,9 C 7,8 C 93 % 0 lf 1022,6 hPa 0,0 l/m 0 min 0 min 0 W/m 6,3 km/h (2 Bft) 97,92 %
06.10.2017 22:52 9,9 C 8,9 C 7,8 C 93 % 0 lf 1022,7 hPa 0,0 l/m 0 min 0 min 0 W/m 6,3 km/h (2 Bft) 97,87 %
06.10.2017 22:54 9,8 C 8,9 C 7,2 C 93 % 0 lf 1022,6 hPa 0,0 l/m 0 min 0 min 0 W/m 4,2 km/h (1 Bft) 95,74 %
06.10.2017 22:56 9,8 C 8,9 C 7,2 C 93 % 0 lf 1022,7 hPa 0,0 l/m 0 min 0 min 0 W/m 10,5 km/h (2 Bft) 97,87 %
06.10.2017 22:58 9,8 C 8,3 C 7,2 C 93 % 0 lf 1022,7 hPa 0,0 l/m 0 min 0 min 0 W/m 4,2 km/h (1 Bft) 97,87 %
06.10.2017 23:00 9,8 C 8,3 C 7,2 C 93 % 0 lf 1022,8 hPa 0,0 l/m 0 min 0 min 0 W/m 8,4 km/h (2 Bft) 95,92 %
06.10.2017 23:02 9,7 C 8,3 C 7,2 C 93 % 0 lf 1022,8 hPa 0,0 l/m 0 min 0 min 0 W/m 8,4 km/h (2 Bft) 97,87 %
06.10.2017 23:04 9,7 C 8,3 C 7,2 C 93 % 0 lf 1022,8 hPa 0,0 l/m 0 min 0 min 0 W/m 10,5 km/h (2 Bft) 97,83 %
06.10.2017 23:06 9,7 C 8,3 C 7,2 C 93 % 0 lf 1022,8 hPa 0,0 l/m 0 min 0 min 0 W/m 12,6 km/h (3 Bft) 97,87 %
06.10.2017 23:08 9,7 C 8,3 C 7,2 C 93 % 0 lf 1022,8 hPa 0,0 l/m 0 min 0 min 0 W/m 8,4 km/h (2 Bft) 100,00 %
06.10.2017 23:10 9,6 C 8,3 C 7,2 C 93 % 0 lf 1022,8 hPa 0,0 l/m 0 min 0 min 0 W/m 8,4 km/h (2 Bft) 97,87 %
06.10.2017 23:12 9,6 C 8,3 C 7,2 C 93 % 0 lf 1022,8 hPa 0,0 l/m 0 min 0 min 0 W/m 12,6 km/h (3 Bft) 97,87 %
06.10.2017 23:14 9,6 C 8,3 C 7,2 C 93 % 0 lf 1022,9 hPa 0,0 l/m 0 min 0 min 0 W/m 10,5 km/h (2 Bft) 95,74 %
06.10.2017 23:16 9,6 C 8,3 C 7,2 C 93 % 0 lf 1022,9 hPa 0,0 l/m 0 min 0 min 0 W/m 12,6 km/h (3 Bft) 97,83 %
06.10.2017 23:18 9,5 C 8,9 C 7,8 C 93 % 0 lf 1023,0 hPa 0,0 l/m 0 min 0 min 0 W/m 12,6 km/h (3 Bft) 100,00 %
06.10.2017 23:20 9,5 C 8,9 C 7,8 C 93 % 0 lf 1022,9 hPa 0,0 l/m 0 min 0 min 2 W/m 12,6 km/h (3 Bft) 95,74 %
06.10.2017 23:22 9,5 C 8,9 C 7,8 C 93 % 0 lf 1023,0 hPa 0,0 l/m 0 min 0 min 0 W/m 14,6 km/h (3 Bft) 95,74 %
06.10.2017 23:24 9,5 C 8,9 C 7,8 C 93 % 0 lf 1023,0 hPa 0,0 l/m 0 min 0 min 0 W/m 10,5 km/h (2 Bft) 95,74 %
06.10.2017 23:26 9,5 C 8,9 C 8,3 C 94 % 0 lf 1023,0 hPa 0,0 l/m 0 min 0 min 0 W/m 12,6 km/h (3 Bft) 97,83 %
06.10.2017 23:28 9,5 C 9,4 C 8,3 C 94 % 0 lf 1023,1 hPa 0,0 l/m 0 min 0 min 0 W/m 14,6 km/h (3 Bft) 97,87 %
06.10.2017 23:30 9,5 C 9,4 C 8,3 C 94 % 0 lf 1023,1 hPa 0,0 l/m 0 min 0 min 0 W/m 6,3 km/h (2 Bft) 97,87 %
06.10.2017 23:32 9,6 C 9,4 C 8,3 C 94 % 0 lf 1023,1 hPa 0,0 l/m 0 min 0 min 0 W/m 12,6 km/h (3 Bft) 95,74 %
06.10.2017 23:34 9,6 C 9,4 C 8,3 C 94 % 0 lf 1023,1 hPa 0,0 l/m 0 min 0 min 0 W/m 14,6 km/h (3 Bft) 97,87 %
06.10.2017 23:36 9,6 C 9,4 C 8,3 C 94 % 0 lf 1023,2 hPa 0,0 l/m 0 min 0 min 0 W/m 14,6 km/h (3 Bft) 95,24 %
06.10.2017 23:38 9,6 C 9,4 C 8,3 C 94 % 0 lf 1023,1 hPa 0,0 l/m 0 min 0 min 0 W/m 12,6 km/h (3 Bft) 91,67 %
06.10.2017 23:40 9,6 C 9,4 C 8,3 C 94 % 0 lf 1023,1 hPa 0,0 l/m 0 min 0 min 0 W/m 14,6 km/h (3 Bft) 95,65 %
06.10.2017 23:42 9,6 C 9,4 C 8,3 C 94 % 0 lf 1023,1 hPa 0,0 l/m 0 min 0 min 0 W/m 14,6 km/h (3 Bft) 95,74 %
06.10.2017 23:44 9,6 C 9,4 C 8,3 C 94 % 0 lf 1023,1 hPa 0,0 l/m 0 min 0 min 0 W/m 12,6 km/h (3 Bft) 97,87 %
06.10.2017 23:46 9,6 C 9,4 C 8,3 C 94 % 0 lf 1023,1 hPa 0,0 l/m 0 min 0 min 0 W/m 12,6 km/h (3 Bft) 97,92 %
06.10.2017 23:48 9,6 C 9,4 C 8,3 C 94 % 0 lf 1023,1 hPa 0,0 l/m 0 min 0 min 0 W/m 16,7 km/h (3 Bft) 95,83 %
06.10.2017 23:50 9,6 C 9,4 C 8,3 C 94 % 0 lf 1023,2 hPa 0,0 l/m 0 min 0 min 0 W/m 10,5 km/h (2 Bft) 95,74 %
06.10.2017 23:52 9,6 C 9,4 C 8,3 C 94 % 0 lf 1023,2 hPa 0,0 l/m 0 min 0 min 0 W/m 14,6 km/h (3 Bft) 95,74 %
06.10.2017 23:54 9,6 C 9,4 C 8,3 C 94 % 0 lf 1023,2 hPa 0,0 l/m 0 min 0 min 0 W/m 10,5 km/h (2 Bft) 97,87 %
06.10.2017 23:56 9,6 C 9,4 C 8,3 C 94 % 0 lf 1023,2 hPa 0,0 l/m 0 min 0 min 0 W/m 14,6 km/h (3 Bft) 91,67 %
06.10.2017 23:58 9,6 C 9,4 C 8,3 C 94 % 0 lf 1023,2 hPa 0,0 l/m 0 min 0 min 0 W/m 14,6 km/h (3 Bft) 95,74 %
_ Min-Zeit 03:52 02:50 02:44 16:10 00:00 03:34 - - - - 22:54 05:42
Minimum _ 8,3 C 7,8 C 6,7 C 80 % 0 lf 1015,5 hPa - - - - 4,2 km/h (1 Bft) 4,76 %
_ Max-Zeit 16:24 15:45 12:30 08:40 06:10 23:36 13:58 15:15 06:10 12:28 13:58 00:02
Maximum _ 14,9 C 21,7 C 14,4 C 95 % 15 lf 1023,2 hPa 0,8 l/m 5 min 4 min 705 W/m 43,9 km/h
NO (6 Bft)
100,00 %
Durchschnitt _ 10,6 C 11,0 C 9,0 C 91 % 3 lf 1018,3 hPa #4,2 l/m #5:48 h #2:20 h 140 W/m 17,3 km/h (3 Bft) 95,66 %
© 2017 W. Hausmann